Wetterdaten: Mittwoch, 19.02.2020
Datum Zeit Temp. Aussen Temp. o. S. Temp +5cm Feuchte Auss Luftdruck Regen Sonnenschein Regendauer Solar Windben Empfang
19.02.2020 00:00 7,2 C 6,7 C 5,6 C 84 % 1016,0 hPa 0,0 l/m 0 min 0 min 0 W/m 25,7 km/h (4 Bft) 95,74 %
19.02.2020 00:02 7,2 C 6,7 C 5,6 C 84 % 1015,9 hPa 0,0 l/m 0 min 0 min 0 W/m 41,8 km/h (6 Bft) 97,73 %
19.02.2020 00:04 7,2 C 6,7 C 5,6 C 84 % 1015,8 hPa 0,0 l/m 0 min 0 min 0 W/m 29,0 km/h (5 Bft) 100,00 %
19.02.2020 00:08 7,2 C 6,7 C 5,6 C 84 % 1015,7 hPa 0,0 l/m 0 min 0 min 0 W/m 29,0 km/h (5 Bft) 98,94 %
19.02.2020 00:10 7,2 C 6,7 C 5,6 C 84 % 1015,7 hPa 0,0 l/m 0 min 0 min 0 W/m 32,2 km/h (5 Bft) 100,00 %
19.02.2020 00:12 7,1 C 6,7 C 5,6 C 83 % 1015,6 hPa 0,0 l/m 0 min 0 min 0 W/m 35,4 km/h (5 Bft) 95,74 %
19.02.2020 00:14 7,1 C 6,7 C 5,6 C 83 % 1015,5 hPa 0,0 l/m 0 min 0 min 0 W/m 25,7 km/h (4 Bft) 97,87 %
19.02.2020 00:16 7,1 C 6,7 C 5,6 C 83 % 1015,4 hPa 0,0 l/m 0 min 0 min 0 W/m 29,0 km/h (5 Bft) 97,87 %
19.02.2020 00:18 7,1 C 6,7 C 5,6 C 83 % 1015,4 hPa 0,0 l/m 0 min 0 min 0 W/m 35,4 km/h (5 Bft) 100,00 %
19.02.2020 00:20 7,1 C 6,1 C 5,6 C 83 % 1015,3 hPa 0,0 l/m 0 min 0 min 0 W/m 29,0 km/h (5 Bft) 95,74 %
19.02.2020 00:22 7,1 C 6,7 C 5,6 C 83 % 1015,3 hPa 0,0 l/m 0 min 0 min 0 W/m 25,7 km/h (4 Bft) 95,65 %
19.02.2020 00:24 7,1 C 6,1 C 5,6 C 83 % 1015,3 hPa 0,0 l/m 0 min 0 min 0 W/m 22,5 km/h (4 Bft) 97,87 %
19.02.2020 00:26 7,1 C 6,7 C 5,6 C 82 % 1015,3 hPa 0,0 l/m 0 min 0 min 0 W/m 22,5 km/h (4 Bft) 97,87 %
19.02.2020 00:28 7,1 C 6,7 C 5,6 C 82 % 1015,2 hPa 0,0 l/m 0 min 0 min 0 W/m 32,2 km/h (5 Bft) 97,87 %
19.02.2020 00:30 7,1 C 6,7 C 6,1 C 82 % 1015,2 hPa 0,0 l/m 0 min 0 min 0 W/m 35,4 km/h (5 Bft) 97,87 %
19.02.2020 00:32 7,2 C 6,7 C 6,1 C 82 % 1015,1 hPa 0,0 l/m 0 min 0 min 0 W/m 25,7 km/h (4 Bft) 95,74 %
19.02.2020 00:34 7,2 C 6,1 C 5,6 C 82 % 1015,1 hPa 0,0 l/m 0 min 2 min 0 W/m 35,4 km/h (5 Bft) 97,83 %
19.02.2020 00:36 7,2 C 6,1 C 5,6 C 82 % 1015,0 hPa 0,0 l/m 0 min 0 min 0 W/m 29,0 km/h (5 Bft) 95,74 %
19.02.2020 00:38 7,2 C 6,1 C 5,6 C 83 % 1015,0 hPa 0,0 l/m 0 min 0 min 0 W/m 25,7 km/h (4 Bft) 95,74 %
19.02.2020 00:40 7,2 C 6,7 C 5,6 C 83 % 1015,0 hPa 0,0 l/m 0 min 0 min 0 W/m 35,4 km/h (5 Bft) 95,74 %
19.02.2020 00:42 7,2 C 6,7 C 5,6 C 83 % 1014,9 hPa 0,0 l/m 0 min 0 min 0 W/m 25,7 km/h (4 Bft) 93,62 %
19.02.2020 00:44 7,2 C 6,1 C 5,6 C 83 % 1014,9 hPa 0,0 l/m 0 min 0 min 0 W/m 35,4 km/h (5 Bft) 95,74 %
19.02.2020 00:46 7,2 C 6,1 C 5,6 C 83 % 1014,8 hPa 0,0 l/m 0 min 2 min 0 W/m 22,5 km/h (4 Bft) 95,65 %
19.02.2020 00:48 7,2 C 6,1 C 5,6 C 83 % 1014,8 hPa 0,0 l/m 0 min 0 min 0 W/m 48,3 km/h (6 Bft) 95,74 %
19.02.2020 00:50 7,3 C 6,1 C 5,6 C 83 % 1014,7 hPa 0,0 l/m 0 min 2 min 0 W/m 29,0 km/h (5 Bft) 93,62 %
19.02.2020 00:52 7,3 C 6,1 C 5,6 C 83 % 1014,8 hPa 0,0 l/m 0 min 2 min 0 W/m 25,7 km/h (4 Bft) 93,62 %
19.02.2020 00:54 7,3 C 6,1 C 5,6 C 83 % 1014,7 hPa 0,0 l/m 0 min 2 min 0 W/m 29,0 km/h (5 Bft) 93,62 %
19.02.2020 00:56 7,3 C 6,1 C 5,6 C 84 % 1014,7 hPa 0,0 l/m 0 min 2 min 0 W/m 29,0 km/h (5 Bft) 97,83 %
19.02.2020 00:58 7,3 C 6,1 C 5,6 C 84 % 1014,7 hPa 0,0 l/m 0 min 2 min 0 W/m 22,5 km/h (4 Bft) 94,00 %
19.02.2020 01:00 7,3 C 6,1 C 5,6 C 84 % 1014,5 hPa 0,0 l/m 0 min 2 min 0 W/m 29,0 km/h (5 Bft) 95,74 %
19.02.2020 01:02 7,3 C 5,6 C 5,0 C 84 % 1014,6 hPa 0,0 l/m 0 min 2 min 0 W/m 38,6 km/h (5 Bft) 94,59 %
19.02.2020 01:04 7,3 C 5,6 C 5,0 C 84 % 1014,5 hPa 0,0 l/m 0 min 2 min 0 W/m 32,2 km/h (5 Bft) 95,74 %
19.02.2020 01:06 7,3 C 5,6 C 5,0 C 85 % 1014,6 hPa 0,2 l/m 0 min 2 min 0 W/m 48,3 km/h (6 Bft) 95,74 %
19.02.2020 01:08 7,3 C 5,6 C 5,0 C 85 % 1014,5 hPa 0,0 l/m 0 min 2 min 0 W/m 41,8 km/h (6 Bft) 95,74 %
19.02.2020 01:10 7,3 C 5,6 C 5,0 C 85 % 1014,3 hPa 0,0 l/m 0 min 2 min 0 W/m 25,7 km/h (4 Bft) 97,87 %
19.02.2020 01:12 7,3 C 5,6 C 5,0 C 85 % 1014,4 hPa 0,0 l/m 0 min 2 min 0 W/m 45,1 km/h (6 Bft) 97,83 %
19.02.2020 01:14 7,3 C 6,1 C 5,0 C 85 % 1014,3 hPa 0,0 l/m 0 min 2 min 0 W/m 45,1 km/h (6 Bft) 97,87 %
19.02.2020 01:16 7,3 C 6,1 C 5,6 C 85 % 1014,2 hPa 0,0 l/m 0 min 2 min 0 W/m 25,7 km/h (4 Bft) 95,74 %
19.02.2020 01:18 7,3 C 6,1 C 5,6 C 85 % 1014,1 hPa 0,0 l/m 0 min 2 min 0 W/m 22,5 km/h (4 Bft) 98,15 %
19.02.2020 01:20 7,3 C 6,7 C 5,6 C 85 % 1014,1 hPa 0,0 l/m 0 min 2 min 0 W/m 32,2 km/h (5 Bft) 97,83 %
19.02.2020 01:22 7,3 C 6,7 C 5,6 C 85 % 1014,1 hPa 0,0 l/m 0 min 2 min 0 W/m 41,8 km/h (6 Bft) 98,00 %
19.02.2020 01:24 7,3 C 6,7 C 5,6 C 85 % 1014,2 hPa 0,0 l/m 0 min 2 min 0 W/m 41,8 km/h (6 Bft) 97,87 %
19.02.2020 01:26 7,4 C 6,7 C 5,6 C 85 % 1014,1 hPa 0,0 l/m 0 min 2 min 0 W/m 38,6 km/h (5 Bft) 97,87 %
19.02.2020 01:28 7,4 C 6,1 C 5,6 C 85 % 1014,0 hPa 0,0 l/m 0 min 2 min 0 W/m 41,8 km/h (6 Bft) 97,87 %
19.02.2020 01:30 7,4 C 6,1 C 5,6 C 85 % 1014,1 hPa 0,0 l/m 0 min 2 min 0 W/m 45,1 km/h (6 Bft) 97,87 %
19.02.2020 01:32 7,4 C 5,6 C 5,0 C 86 % 1014,0 hPa 0,0 l/m 0 min 2 min 0 W/m 29,0 km/h (5 Bft) 97,83 %
19.02.2020 01:34 7,4 C 5,0 C 5,0 C 86 % 1014,0 hPa 0,0 l/m 0 min 2 min 0 W/m 35,4 km/h (5 Bft) 97,87 %
19.02.2020 01:36 7,4 C 5,0 C 5,0 C 86 % 1014,0 hPa 0,0 l/m 0 min 2 min 0 W/m 25,7 km/h (4 Bft) 93,62 %
19.02.2020 01:38 7,4 C 5,0 C 4,4 C 86 % 1014,0 hPa 0,0 l/m 0 min 2 min 0 W/m 45,1 km/h (6 Bft) 100,00 %
19.02.2020 01:40 7,4 C 5,0 C 4,4 C 87 % 1013,9 hPa 0,2 l/m 0 min 2 min 0 W/m 38,6 km/h (5 Bft) 100,00 %
19.02.2020 01:42 7,3 C 5,0 C 4,4 C 87 % 1013,7 hPa 0,0 l/m 0 min 2 min 0 W/m 38,6 km/h (5 Bft) 100,00 %
19.02.2020 01:44 7,3 C 5,0 C 4,4 C 88 % 1013,6 hPa 0,0 l/m 0 min 2 min 0 W/m 45,1 km/h (6 Bft) 100,00 %
19.02.2020 01:46 7,3 C 5,0 C 4,4 C 88 % 1013,6 hPa 0,0 l/m 0 min 2 min 0 W/m 32,2 km/h (5 Bft) 100,00 %
19.02.2020 01:48 7,2 C 5,0 C 4,4 C 88 % 1013,6 hPa 0,2 l/m 0 min 2 min 0 W/m 35,4 km/h (5 Bft) 95,74 %
19.02.2020 01:50 7,2 C 5,0 C 4,4 C 89 % 1013,4 hPa 0,0 l/m 0 min 2 min 0 W/m 38,6 km/h (5 Bft) 100,00 %
19.02.2020 01:52 7,1 C 5,0 C 4,4 C 89 % 1013,4 hPa 0,0 l/m 0 min 2 min 0 W/m 38,6 km/h (5 Bft) 100,00 %
19.02.2020 01:54 7,1 C 5,0 C 4,4 C 89 % 1013,3 hPa 0,0 l/m 0 min 2 min 0 W/m 48,3 km/h (6 Bft) 97,83 %
19.02.2020 01:56 7,1 C 5,0 C 4,4 C 89 % 1013,3 hPa 0,0 l/m 0 min 2 min 0 W/m 38,6 km/h (5 Bft) 100,00 %
19.02.2020 01:58 7,1 C 5,0 C 4,4 C 89 % 1013,3 hPa 0,0 l/m 0 min 2 min 0 W/m 32,2 km/h (5 Bft) 100,00 %
19.02.2020 02:00 7,1 C 5,0 C 4,4 C 89 % 1013,3 hPa 0,0 l/m 0 min 2 min 0 W/m 22,5 km/h (4 Bft) 100,00 %
19.02.2020 02:02 7,1 C 5,0 C 4,4 C 90 % 1013,3 hPa 0,0 l/m 0 min 2 min 0 W/m 22,5 km/h (4 Bft) 100,00 %
19.02.2020 02:04 7,0 C 5,0 C 4,4 C 90 % 1013,3 hPa 0,0 l/m 0 min 2 min 0 W/m 32,2 km/h (5 Bft) 100,00 %
19.02.2020 02:06 7,0 C 5,0 C 4,4 C 90 % 1013,4 hPa 0,0 l/m 0 min 2 min 0 W/m 38,6 km/h (5 Bft) 97,83 %
19.02.2020 02:08 7,0 C 5,0 C 4,4 C 90 % 1013,3 hPa 0,0 l/m 0 min 2 min 0 W/m 32,2 km/h (5 Bft) 97,87 %
19.02.2020 02:10 6,9 C 5,0 C 4,4 C 90 % 1013,3 hPa 0,0 l/m 0 min 2 min 0 W/m 45,1 km/h (6 Bft) 93,62 %
19.02.2020 02:12 6,9 C 5,0 C 4,4 C 90 % 1013,4 hPa 0,0 l/m 0 min 2 min 0 W/m 61,2 km/h (7 Bft) 97,87 %
19.02.2020 02:14 6,9 C 5,0 C 4,4 C 90 % 1013,4 hPa 0,0 l/m 0 min 2 min 0 W/m 41,8 km/h (6 Bft) 97,87 %
19.02.2020 02:16 6,9 C 5,0 C 4,4 C 90 % 1013,4 hPa 0,0 l/m 0 min 2 min 0 W/m 29,0 km/h (5 Bft) 97,87 %
19.02.2020 02:18 6,9 C 5,0 C 4,4 C 90 % 1013,5 hPa 0,0 l/m 0 min 2 min 0 W/m 45,1 km/h (6 Bft) 97,83 %
19.02.2020 02:20 6,9 C 5,0 C 4,4 C 90 % 1013,4 hPa 0,0 l/m 0 min 2 min 0 W/m 41,8 km/h (6 Bft) 97,87 %
19.02.2020 02:22 6,8 C 5,0 C 4,4 C 91 % 1013,4 hPa 0,0 l/m 0 min 2 min 0 W/m 45,1 km/h (6 Bft) 95,74 %
19.02.2020 02:24 6,8 C 5,0 C 4,4 C 91 % 1013,6 hPa 0,2 l/m 0 min 2 min 0 W/m 38,6 km/h (5 Bft) 97,87 %
19.02.2020 02:26 6,8 C 5,0 C 4,4 C 91 % 1013,4 hPa 0,0 l/m 0 min 2 min 0 W/m 54,7 km/h (7 Bft) 97,87 %
19.02.2020 02:28 6,7 C 5,0 C 4,4 C 91 % 1013,5 hPa 0,0 l/m 0 min 2 min 0 W/m 35,4 km/h (5 Bft) 97,83 %
19.02.2020 02:30 6,7 C 5,0 C 4,4 C 91 % 1013,4 hPa 0,0 l/m 0 min 2 min 0 W/m 38,6 km/h (5 Bft) 97,87 %
19.02.2020 02:32 6,7 C 5,0 C 4,4 C 91 % 1013,4 hPa 0,0 l/m 0 min 2 min 0 W/m 25,7 km/h (4 Bft) 95,74 %
19.02.2020 02:34 6,6 C 5,0 C 4,4 C 91 % 1013,2 hPa 0,0 l/m 0 min 2 min 0 W/m 35,4 km/h (5 Bft) 95,74 %
19.02.2020 02:36 6,6 C 5,0 C 4,4 C 91 % 1013,3 hPa 0,0 l/m 0 min 2 min 0 W/m 32,2 km/h (5 Bft) 97,87 %
19.02.2020 02:38 6,6 C 5,0 C 4,4 C 91 % 1013,2 hPa 0,0 l/m 0 min 2 min 0 W/m 16,1 km/h (3 Bft) 95,74 %
19.02.2020 02:40 6,5 C 5,0 C 4,4 C 91 % 1013,3 hPa 0,0 l/m 0 min 2 min 0 W/m 25,7 km/h (4 Bft) 97,83 %
19.02.2020 02:42 6,5 C 5,0 C 4,4 C 91 % 1013,2 hPa 0,0 l/m 0 min 2 min 0 W/m 19,3 km/h (3 Bft) 95,74 %
19.02.2020 02:44 6,5 C 5,0 C 4,4 C 92 % 1013,2 hPa 0,0 l/m 0 min 2 min 0 W/m 19,3 km/h (3 Bft) 95,74 %
19.02.2020 02:46 6,5 C 5,0 C 4,4 C 92 % 1013,4 hPa 0,0 l/m 0 min 2 min 0 W/m 29,0 km/h (5 Bft) 97,87 %
19.02.2020 02:48 6,5 C 5,0 C 4,4 C 92 % 1013,3 hPa 0,0 l/m 0 min 2 min 0 W/m 38,6 km/h (5 Bft) 93,62 %
19.02.2020 02:50 6,4 C 5,0 C 4,4 C 92 % 1013,3 hPa 0,0 l/m 0 min 2 min 0 W/m 16,1 km/h (3 Bft) 97,87 %
19.02.2020 02:52 6,4 C 5,0 C 4,4 C 92 % 1013,2 hPa 0,0 l/m 0 min 2 min 0 W/m 25,7 km/h (4 Bft) 97,83 %
19.02.2020 02:54 6,4 C 5,0 C 4,4 C 92 % 1013,3 hPa 0,0 l/m 0 min 2 min 0 W/m 22,5 km/h (4 Bft) 97,87 %
19.02.2020 02:56 6,4 C 5,0 C 4,4 C 92 % 1013,2 hPa 0,0 l/m 0 min 2 min 0 W/m 22,5 km/h (4 Bft) 97,87 %
19.02.2020 02:58 6,4 C 5,0 C 4,4 C 92 % 1013,2 hPa 0,0 l/m 0 min 2 min 0 W/m 0,0 km/h (0 Bft) 97,87 %
19.02.2020 03:00 6,3 C 5,0 C 4,4 C 92 % 1013,2 hPa 0,0 l/m 0 min 2 min 0 W/m 12,9 km/h (3 Bft) 100,00 %
19.02.2020 03:02 6,3 C 4,4 C 4,4 C 92 % 1013,2 hPa 0,0 l/m 0 min 2 min 0 W/m 16,1 km/h (3 Bft) 97,87 %
19.02.2020 03:04 6,3 C 4,4 C 4,4 C 92 % 1013,1 hPa 0,0 l/m 0 min 2 min 0 W/m 19,3 km/h (3 Bft) 95,65 %
19.02.2020 03:06 6,3 C 4,4 C 4,4 C 92 % 1013,1 hPa 0,0 l/m 0 min 2 min 0 W/m 16,1 km/h (3 Bft) 93,62 %
19.02.2020 03:08 6,3 C 4,4 C 4,4 C 92 % 1013,1 hPa 0,0 l/m 0 min 2 min 0 W/m 9,7 km/h (2 Bft) 97,87 %
19.02.2020 03:10 6,3 C 4,4 C 4,4 C 92 % 1013,2 hPa 0,0 l/m 0 min 2 min 0 W/m 19,3 km/h (3 Bft) 97,87 %
19.02.2020 03:12 6,3 C 4,4 C 4,4 C 92 % 1013,1 hPa 0,0 l/m 0 min 2 min 0 W/m 22,5 km/h (4 Bft) 97,87 %
19.02.2020 03:14 6,2 C 4,4 C 4,4 C 92 % 1013,1 hPa 0,0 l/m 0 min 2 min 0 W/m 12,9 km/h (3 Bft) 97,87 %
19.02.2020 03:16 6,2 C 4,4 C 4,4 C 92 % 1013,1 hPa 0,0 l/m 0 min 2 min 0 W/m 12,9 km/h (3 Bft) 97,83 %
19.02.2020 03:18 6,2 C 4,4 C 4,4 C 92 % 1013,0 hPa 0,0 l/m 0 min 2 min 0 W/m 12,9 km/h (3 Bft) 97,87 %
19.02.2020 03:20 6,2 C 4,4 C 4,4 C 92 % 1013,0 hPa 0,0 l/m 0 min 2 min 0 W/m 12,9 km/h (3 Bft) 97,87 %
19.02.2020 03:22 6,2 C 4,4 C 4,4 C 92 % 1013,0 hPa 0,0 l/m 0 min 2 min 0 W/m 16,1 km/h (3 Bft) 97,87 %
19.02.2020 03:24 6,2 C 4,4 C 4,4 C 92 % 1013,0 hPa 0,0 l/m 0 min 2 min 0 W/m 16,1 km/h (3 Bft) 97,87 %
19.02.2020 03:26 6,2 C 4,4 C 4,4 C 92 % 1013,0 hPa 0,0 l/m 0 min 2 min 0 W/m 19,3 km/h (3 Bft) 97,87 %
19.02.2020 03:28 6,2 C 4,4 C 4,4 C 93 % 1013,0 hPa 0,0 l/m 0 min 2 min 0 W/m 16,1 km/h (3 Bft) 97,83 %
19.02.2020 03:30 6,1 C 4,4 C 4,4 C 93 % 1013,0 hPa 0,0 l/m 0 min 2 min 0 W/m 16,1 km/h (3 Bft) 97,87 %
19.02.2020 03:32 6,1 C 4,4 C 4,4 C 93 % 1013,0 hPa 0,0 l/m 0 min 2 min 0 W/m 9,7 km/h (2 Bft) 97,87 %
19.02.2020 03:34 6,1 C 4,4 C 4,4 C 93 % 1013,0 hPa 0,0 l/m 0 min 2 min 0 W/m 9,7 km/h (2 Bft) 95,74 %
19.02.2020 03:36 6,1 C 4,4 C 4,4 C 93 % 1013,0 hPa 0,0 l/m 0 min 0 min 0 W/m 12,9 km/h (3 Bft) 93,62 %
19.02.2020 03:38 6,1 C 4,4 C 4,4 C 93 % 1013,1 hPa 0,0 l/m 0 min 2 min 0 W/m 19,3 km/h (3 Bft) 97,83 %
19.02.2020 03:40 6,1 C 4,4 C 4,4 C 92 % 1013,1 hPa 0,0 l/m 0 min 2 min 0 W/m 12,9 km/h (3 Bft) 97,87 %
19.02.2020 03:42 6,1 C 4,4 C 4,4 C 92 % 1013,0 hPa 0,0 l/m 0 min 0 min 0 W/m 0,0 km/h (0 Bft) 97,87 %
19.02.2020 03:44 6,1 C 4,4 C 4,4 C 93 % 1013,0 hPa 0,0 l/m 0 min 0 min 0 W/m 9,7 km/h (2 Bft) 97,87 %
19.02.2020 03:46 6,1 C 5,0 C 4,4 C 92 % 1013,0 hPa 0,0 l/m 0 min 2 min 0 W/m 29,0 km/h (5 Bft) 100,00 %
19.02.2020 03:48 6,1 C 5,0 C 4,4 C 92 % 1013,0 hPa 0,0 l/m 0 min 2 min 0 W/m 16,1 km/h (3 Bft) 100,00 %
19.02.2020 03:50 6,1 C 5,0 C 4,4 C 92 % 1013,0 hPa 0,0 l/m 0 min 0 min 0 W/m 19,3 km/h (3 Bft) 100,00 %
19.02.2020 03:52 6,1 C 5,0 C 4,4 C 92 % 1013,0 hPa 0,0 l/m 0 min 2 min 0 W/m 22,5 km/h (4 Bft) 100,00 %
19.02.2020 03:54 6,1 C 5,0 C 4,4 C 92 % 1013,0 hPa 0,0 l/m 0 min 0 min 0 W/m 12,9 km/h (3 Bft) 97,87 %
19.02.2020 03:56 6,1 C 5,0 C 4,4 C 92 % 1013,0 hPa 0,0 l/m 0 min 0 min 0 W/m 12,9 km/h (3 Bft) 100,00 %
19.02.2020 03:58 6,1 C 5,0 C 4,4 C 92 % 1013,0 hPa 0,0 l/m 0 min 0 min 0 W/m 6,4 km/h (2 Bft) 100,00 %
19.02.2020 04:00 6,1 C 5,0 C 4,4 C 92 % 1013,0 hPa 0,0 l/m 0 min 0 min 0 W/m 16,1 km/h (3 Bft) 97,87 %
19.02.2020 04:02 6,1 C 5,0 C 4,4 C 92 % 1013,1 hPa 0,0 l/m 0 min 2 min 0 W/m 12,9 km/h (3 Bft) 100,00 %
19.02.2020 04:04 6,1 C 5,0 C 4,4 C 92 % 1013,0 hPa 0,0 l/m 0 min 2 min 0 W/m 19,3 km/h (3 Bft) 100,00 %
19.02.2020 04:06 6,1 C 4,4 C 3,9 C 92 % 1013,0 hPa 0,0 l/m 0 min 2 min 0 W/m 9,7 km/h (2 Bft) 100,00 %
19.02.2020 04:08 6,1 C 4,4 C 3,9 C 92 % 1013,1 hPa 0,0 l/m 0 min 2 min 0 W/m 16,1 km/h (3 Bft) 100,00 %
19.02.2020 04:10 6,1 C 4,4 C 3,9 C 92 % 1013,1 hPa 0,0 l/m 0 min 2 min 0 W/m 19,3 km/h (3 Bft) 100,00 %
19.02.2020 04:12 6,1 C 4,4 C 3,9 C 92 % 1013,1 hPa 0,2 l/m 0 min 2 min 0 W/m 22,5 km/h (4 Bft) 100,00 %
19.02.2020 04:14 6,1 C 4,4 C 3,9 C 92 % 1013,1 hPa 0,0 l/m 0 min 2 min 0 W/m 22,5 km/h (4 Bft) 100,00 %
19.02.2020 04:16 6,1 C 4,4 C 3,9 C 92 % 1013,1 hPa 0,0 l/m 0 min 2 min 0 W/m 22,5 km/h (4 Bft) 100,00 %
19.02.2020 04:18 6,1 C 4,4 C 3,9 C 92 % 1013,1 hPa 0,0 l/m 0 min 2 min 0 W/m 25,7 km/h (4 Bft) 100,00 %
19.02.2020 04:20 6,1 C 4,4 C 3,9 C 92 % 1013,1 hPa 0,0 l/m 0 min 2 min 0 W/m 9,7 km/h (2 Bft) 100,00 %
19.02.2020 04:22 6,0 C 4,4 C 3,9 C 92 % 1013,2 hPa 0,0 l/m 0 min 2 min 0 W/m 12,9 km/h (3 Bft) 100,00 %
19.02.2020 04:24 6,0 C 4,4 C 3,9 C 92 % 1013,1 hPa 0,0 l/m 0 min 2 min 0 W/m 12,9 km/h (3 Bft) 100,00 %
19.02.2020 04:26 5,9 C 4,4 C 3,9 C 92 % 1013,1 hPa 0,0 l/m 0 min 2 min 0 W/m 19,3 km/h (3 Bft) 100,00 %
19.02.2020 04:28 5,9 C 4,4 C 3,9 C 92 % 1013,2 hPa 0,0 l/m 0 min 2 min 0 W/m 12,9 km/h (3 Bft) 95,65 %
19.02.2020 04:30 5,9 C 4,4 C 3,9 C 92 % 1013,1 hPa 0,0 l/m 0 min 2 min 0 W/m 3,2 km/h (1 Bft) 97,87 %
19.02.2020 04:32 5,9 C 4,4 C 3,9 C 92 % 1013,2 hPa 0,0 l/m 0 min 2 min 0 W/m 12,9 km/h (3 Bft) 97,87 %
19.02.2020 04:34 5,9 C 4,4 C 3,9 C 92 % 1013,2 hPa 0,0 l/m 0 min 2 min 0 W/m 12,9 km/h (3 Bft) 97,87 %
19.02.2020 04:36 5,9 C 4,4 C 3,9 C 92 % 1013,2 hPa 0,0 l/m 0 min 2 min 0 W/m 12,9 km/h (3 Bft) 97,87 %
19.02.2020 04:38 5,9 C 4,4 C 3,9 C 93 % 1013,2 hPa 0,0 l/m 0 min 2 min 0 W/m 19,3 km/h (3 Bft) 97,87 %
19.02.2020 04:40 5,8 C 4,4 C 3,9 C 93 % 1013,3 hPa 0,0 l/m 0 min 2 min 0 W/m 12,9 km/h (3 Bft) 97,83 %
19.02.2020 04:42 5,8 C 4,4 C 3,9 C 93 % 1013,2 hPa 0,0 l/m 0 min 2 min 0 W/m 3,2 km/h (1 Bft) 97,87 %
19.02.2020 04:44 5,8 C 4,4 C 3,9 C 93 % 1013,2 hPa 0,0 l/m 0 min 2 min 0 W/m 29,0 km/h (5 Bft) 97,87 %
19.02.2020 04:46 5,8 C 3,9 C 3,9 C 93 % 1013,2 hPa 0,2 l/m 0 min 2 min 0 W/m 25,7 km/h (4 Bft) 95,74 %
19.02.2020 04:48 5,8 C 4,4 C 3,9 C 93 % 1013,3 hPa 0,0 l/m 0 min 0 min 0 W/m 22,5 km/h (4 Bft) 97,87 %
19.02.2020 04:50 5,7 C 4,4 C 3,9 C 93 % 1013,4 hPa 0,0 l/m 0 min 0 min 0 W/m 16,1 km/h (3 Bft) 97,87 %
19.02.2020 04:52 5,7 C 4,4 C 3,9 C 93 % 1013,4 hPa 0,0 l/m 0 min 2 min 0 W/m 19,3 km/h (3 Bft) 95,65 %
19.02.2020 04:54 5,7 C 4,4 C 3,9 C 93 % 1013,4 hPa 0,0 l/m 0 min 0 min 0 W/m 19,3 km/h (3 Bft) 100,00 %
19.02.2020 04:56 5,7 C 4,4 C 3,9 C 93 % 1013,4 hPa 0,0 l/m 0 min 0 min 0 W/m 6,4 km/h (2 Bft) 97,87 %
19.02.2020 04:58 5,7 C 4,4 C 3,9 C 93 % 1013,5 hPa 0,0 l/m 0 min 0 min 0 W/m 6,4 km/h (2 Bft) 93,62 %
19.02.2020 05:00 5,6 C 4,4 C 3,9 C 93 % 1013,6 hPa 0,0 l/m 0 min 0 min 0 W/m 16,1 km/h (3 Bft) 95,74 %
19.02.2020 05:02 5,6 C 4,4 C 3,9 C 93 % 1013,7 hPa 0,0 l/m 0 min 0 min 0 W/m 12,9 km/h (3 Bft) 95,74 %
19.02.2020 05:04 5,6 C 4,4 C 3,9 C 94 % 1013,7 hPa 0,0 l/m 0 min 0 min 0 W/m 16,1 km/h (3 Bft) 95,65 %
19.02.2020 05:06 5,6 C 4,4 C 3,9 C 94 % 1013,6 hPa 0,0 l/m 0 min 0 min 0 W/m 19,3 km/h (3 Bft) 95,74 %
19.02.2020 05:08 5,6 C 4,4 C 3,9 C 94 % 1014,0 hPa 0,0 l/m 0 min 0 min 0 W/m 12,9 km/h (3 Bft) 93,62 %
19.02.2020 05:10 5,6 C 4,4 C 3,9 C 94 % 1014,2 hPa 0,0 l/m 0 min 0 min 0 W/m 22,5 km/h (4 Bft) 95,74 %
19.02.2020 05:12 5,4 C 3,9 C 3,3 C 94 % 1014,3 hPa 0,0 l/m 0 min 2 min 0 W/m 41,8 km/h (6 Bft) 93,62 %
19.02.2020 05:14 5,3 C 2,8 C 2,8 C 93 % 1014,3 hPa 0,0 l/m 0 min 2 min 0 W/m 16,1 km/h (3 Bft) 95,65 %
19.02.2020 05:16 5,0 C 2,8 C 2,2 C 93 % 1014,3 hPa 0,2 l/m 0 min 2 min 0 W/m 19,3 km/h (3 Bft) 93,62 %
19.02.2020 05:18 4,8 C 2,2 C 1,7 C 92 % 1014,2 hPa 0,4 l/m 0 min 2 min 0 W/m 16,1 km/h (3 Bft) 95,74 %
19.02.2020 05:20 4,6 C 2,2 C 1,7 C 92 % 1014,5 hPa 0,0 l/m 0 min 2 min 0 W/m 22,5 km/h (4 Bft) 63,83 %
19.02.2020 05:22 4,3 C 2,2 C 1,7 C 92 % 1014,6 hPa 0,6 l/m 0 min 2 min 0 W/m 22,5 km/h (4 Bft) 85,71 %
19.02.2020 05:24 4,2 C 2,2 C 1,7 C 92 % 1014,7 hPa 0,2 l/m 0 min 2 min 0 W/m 22,5 km/h (4 Bft) 93,62 %
19.02.2020 05:26 4,1 C 2,2 C 1,7 C 92 % 1014,6 hPa 0,2 l/m 0 min 2 min 0 W/m 19,3 km/h (3 Bft) 93,48 %
19.02.2020 05:28 3,9 C 2,2 C 1,7 C 93 % 1014,5 hPa 0,2 l/m 0 min 2 min 0 W/m 22,5 km/h (4 Bft) 95,74 %
19.02.2020 05:30 3,8 C 2,2 C 1,7 C 93 % 1014,5 hPa 0,0 l/m 0 min 2 min 0 W/m 19,3 km/h (3 Bft) 95,74 %
19.02.2020 05:32 3,8 C 2,2 C 1,7 C 93 % 1014,5 hPa 0,0 l/m 0 min 0 min 0 W/m 22,5 km/h (4 Bft) 95,74 %
19.02.2020 05:34 3,7 C 2,2 C 2,2 C 93 % 1014,6 hPa 0,0 l/m 0 min 0 min 0 W/m 22,5 km/h (4 Bft) 91,49 %
19.02.2020 05:36 3,7 C 2,2 C 2,2 C 93 % 1014,6 hPa 0,2 l/m 0 min 0 min 0 W/m 16,1 km/h (3 Bft) 93,62 %
19.02.2020 05:38 3,6 C 2,2 C 2,2 C 93 % 1014,7 hPa 0,0 l/m 0 min 2 min 0 W/m 6,4 km/h (2 Bft) 95,65 %
19.02.2020 05:40 3,6 C 2,2 C 2,2 C 94 % 1014,6 hPa 0,0 l/m 0 min 2 min 0 W/m 6,4 km/h (2 Bft) 95,74 %
19.02.2020 05:42 3,6 C 2,2 C 2,2 C 94 % 1014,6 hPa 0,0 l/m 0 min 2 min 0 W/m 9,7 km/h (2 Bft) 93,62 %
19.02.2020 05:44 3,5 C 2,2 C 2,2 C 94 % 1014,6 hPa 0,0 l/m 0 min 0 min 0 W/m 16,1 km/h (3 Bft) 95,74 %
19.02.2020 05:46 3,5 C 2,2 C 2,2 C 94 % 1014,7 hPa 0,0 l/m 0 min 0 min 0 W/m 6,4 km/h (2 Bft) 95,74 %
19.02.2020 05:48 3,4 C 2,2 C 2,2 C 94 % 1014,8 hPa 0,0 l/m 0 min 0 min 0 W/m 9,7 km/h (2 Bft) 95,74 %
19.02.2020 05:50 3,4 C 2,2 C 2,2 C 94 % 1014,6 hPa 0,0 l/m 0 min 0 min 0 W/m 6,4 km/h (2 Bft) 93,48 %
19.02.2020 05:52 3,4 C 2,2 C 2,2 C 94 % 1014,7 hPa 0,0 l/m 0 min 0 min 0 W/m 6,4 km/h (2 Bft) 95,74 %
19.02.2020 05:54 3,4 C 2,2 C 2,2 C 95 % 1014,7 hPa 0,0 l/m 0 min 0 min 0 W/m 9,7 km/h (2 Bft) 95,74 %
19.02.2020 05:56 3,4 C 2,2 C 2,2 C 95 % 1014,8 hPa 0,0 l/m 0 min 0 min 0 W/m 6,4 km/h (2 Bft) 95,74 %
19.02.2020 05:58 3,4 C 2,2 C 2,2 C 95 % 1014,8 hPa 0,0 l/m 0 min 0 min 0 W/m 12,9 km/h (3 Bft) 97,87 %
19.02.2020 06:00 3,4 C 2,8 C 2,2 C 95 % 1014,8 hPa 0,2 l/m 0 min 0 min 0 W/m 12,9 km/h (3 Bft) 97,87 %
19.02.2020 06:02 3,4 C 2,8 C 2,2 C 95 % 1014,8 hPa 0,0 l/m 0 min 0 min 0 W/m 9,7 km/h (2 Bft) 95,65 %
19.02.2020 06:04 3,4 C 2,8 C 2,2 C 95 % 1014,9 hPa 0,0 l/m 0 min 0 min 0 W/m 9,7 km/h (2 Bft) 97,87 %
19.02.2020 06:08 3,5 C 2,8 C 2,2 C 95 % 1014,9 hPa 0,0 l/m 0 min 0 min 0 W/m 12,9 km/h (3 Bft) 96,81 %
19.02.2020 06:10 3,5 C 2,8 C 2,2 C 95 % 1014,9 hPa 0,0 l/m 0 min 0 min 0 W/m 3,2 km/h (1 Bft) 97,87 %
19.02.2020 06:12 3,5 C 2,2 C 2,2 C 95 % 1014,9 hPa 0,0 l/m 0 min 0 min 0 W/m 0,0 km/h (0 Bft) 95,74 %
19.02.2020 06:14 3,5 C 2,2 C 2,2 C 95 % 1014,9 hPa 0,0 l/m 0 min 0 min 0 W/m 0,0 km/h (0 Bft) 95,65 %
19.02.2020 06:16 3,5 C 2,2 C 2,2 C 95 % 1014,9 hPa 0,0 l/m 0 min 0 min 0 W/m 0,0 km/h (0 Bft) 91,49 %
19.02.2020 06:18 3,4 C 2,2 C 2,2 C 95 % 1015,0 hPa 0,0 l/m 0 min 0 min 0 W/m 12,9 km/h (3 Bft) 97,87 %
19.02.2020 06:20 3,4 C 2,2 C 2,2 C 96 % 1015,0 hPa 0,0 l/m 0 min 0 min 0 W/m 12,9 km/h (3 Bft) 95,74 %
19.02.2020 06:22 3,4 C 2,2 C 2,2 C 96 % 1015,0 hPa 0,0 l/m 0 min 0 min 0 W/m 9,7 km/h (2 Bft) 97,87 %
19.02.2020 06:24 3,4 C 2,2 C 2,2 C 96 % 1015,0 hPa 0,0 l/m 0 min 0 min 0 W/m 9,7 km/h (2 Bft) 100,00 %
19.02.2020 06:26 3,4 C 2,2 C 2,2 C 96 % 1015,0 hPa 0,0 l/m 0 min 0 min 0 W/m 12,9 km/h (3 Bft) 97,83 %
19.02.2020 06:28 3,4 C 2,2 C 2,2 C 96 % 1015,1 hPa 0,0 l/m 0 min 0 min 0 W/m 3,2 km/h (1 Bft) 100,00 %
19.02.2020 06:30 3,3 C 2,2 C 2,2 C 96 % 1015,2 hPa 0,0 l/m 0 min 0 min 0 W/m 3,2 km/h (1 Bft) 97,87 %
19.02.2020 06:32 3,3 C 2,2 C 2,2 C 96 % 1015,2 hPa 0,0 l/m 0 min 0 min 0 W/m 3,2 km/h (1 Bft) 100,00 %
19.02.2020 06:34 3,3 C 2,2 C 2,2 C 96 % 1015,2 hPa 0,0 l/m 0 min 0 min 0 W/m 9,7 km/h (2 Bft) 100,00 %
19.02.2020 06:36 3,4 C 2,2 C 2,2 C 96 % 1015,2 hPa 0,0 l/m 0 min 0 min 0 W/m 9,7 km/h (2 Bft) 100,00 %
19.02.2020 06:38 3,4 C 2,8 C 2,2 C 96 % 1015,3 hPa 0,0 l/m 0 min 0 min 0 W/m 6,4 km/h (2 Bft) 100,00 %
19.02.2020 06:40 3,4 C 2,8 C 2,2 C 96 % 1015,3 hPa 0,0 l/m 0 min 0 min 0 W/m 12,9 km/h (3 Bft) 100,00 %
19.02.2020 06:42 3,4 C 2,8 C 2,2 C 96 % 1015,3 hPa 0,0 l/m 0 min 0 min 0 W/m 9,7 km/h (2 Bft) 97,87 %
19.02.2020 06:44 3,4 C 2,8 C 2,2 C 96 % 1015,3 hPa 0,0 l/m 0 min 0 min 0 W/m 6,4 km/h (2 Bft) 100,00 %
19.02.2020 06:46 3,4 C 2,8 C 2,2 C 96 % 1015,4 hPa 0,0 l/m 0 min 0 min 0 W/m 9,7 km/h (2 Bft) 100,00 %
19.02.2020 06:48 3,5 C 2,8 C 2,2 C 96 % 1015,5 hPa 0,0 l/m 0 min 0 min 0 W/m 9,7 km/h (2 Bft) 100,00 %
19.02.2020 06:50 3,5 C 2,8 C 2,2 C 96 % 1015,5 hPa 0,0 l/m 0 min 0 min 0 W/m 12,9 km/h (3 Bft) 100,00 %
19.02.2020 06:52 3,5 C 2,8 C 2,2 C 96 % 1015,5 hPa 0,0 l/m 0 min 0 min 0 W/m 9,7 km/h (2 Bft) 100,00 %
19.02.2020 06:54 3,5 C 2,8 C 2,2 C 96 % 1015,6 hPa 0,0 l/m 0 min 0 min 0 W/m 6,4 km/h (2 Bft) 100,00 %
19.02.2020 06:56 3,5 C 2,8 C 2,2 C 96 % 1015,6 hPa 0,0 l/m 0 min 0 min 0 W/m 0,0 km/h (0 Bft) 100,00 %
19.02.2020 06:58 3,6 C 2,8 C 2,2 C 96 % 1015,7 hPa 0,0 l/m 0 min 0 min 0 W/m 9,7 km/h (2 Bft) 97,87 %
19.02.2020 07:00 3,6 C 2,8 C 2,2 C 97 % 1015,7 hPa 0,0 l/m 0 min 0 min 0 W/m 12,9 km/h (3 Bft) 100,00 %
19.02.2020 07:02 3,6 C 2,8 C 2,2 C 97 % 1015,7 hPa 0,0 l/m 0 min 0 min 0 W/m 3,2 km/h (1 Bft) 100,00 %
19.02.2020 07:04 3,6 C 2,8 C 2,2 C 97 % 1015,7 hPa 0,0 l/m 0 min 0 min 0 W/m 6,4 km/h (2 Bft) 100,00 %
19.02.2020 07:06 3,6 C 2,8 C 2,2 C 97 % 1015,8 hPa 0,0 l/m 0 min 0 min 0 W/m 12,9 km/h (3 Bft) 97,87 %
19.02.2020 07:08 3,6 C 2,8 C 2,2 C 97 % 1015,8 hPa 0,0 l/m 0 min 0 min 0 W/m 12,9 km/h (3 Bft) 100,00 %
19.02.2020 07:10 3,6 C 2,8 C 2,2 C 97 % 1015,8 hPa 0,0 l/m 0 min 0 min 0 W/m 12,9 km/h (3 Bft) 100,00 %
19.02.2020 07:12 3,6 C 2,8 C 2,2 C 97 % 1015,9 hPa 0,0 l/m 0 min 0 min 0 W/m 19,3 km/h (3 Bft) 100,00 %
19.02.2020 07:14 3,6 C 2,8 C 2,2 C 97 % 1016,0 hPa 0,0 l/m 0 min 0 min 0 W/m 6,4 km/h (2 Bft) 100,00 %
19.02.2020 07:16 3,6 C 2,8 C 2,2 C 97 % 1016,1 hPa 0,0 l/m 0 min 0 min 0 W/m 12,9 km/h (3 Bft) 100,00 %
19.02.2020 07:18 3,6 C 2,8 C 2,2 C 97 % 1016,1 hPa 0,0 l/m 0 min 0 min 0 W/m 3,2 km/h (1 Bft) 97,87 %
19.02.2020 07:20 3,6 C 2,8 C 2,2 C 97 % 1016,2 hPa 0,0 l/m 0 min 0 min 0 W/m 0,0 km/h (0 Bft) 100,00 %
19.02.2020 07:22 3,6 C 2,8 C 2,2 C 97 % 1016,2 hPa 0,0 l/m 0 min 0 min 0 W/m 0,0 km/h (0 Bft) 100,00 %
19.02.2020 07:24 3,6 C 2,8 C 2,2 C 97 % 1016,3 hPa 0,0 l/m 0 min 0 min 0 W/m 12,9 km/h (3 Bft) 100,00 %
19.02.2020 07:26 3,6 C 2,8 C 2,2 C 97 % 1016,3 hPa 0,0 l/m 0 min 0 min 0 W/m 9,7 km/h (2 Bft) 100,00 %
19.02.2020 07:28 3,6 C 2,8 C 2,2 C 97 % 1016,4 hPa 0,0 l/m 0 min 0 min 0 W/m 16,1 km/h (3 Bft) 97,87 %
19.02.2020 07:30 3,6 C 2,8 C 2,2 C 97 % 1016,4 hPa 0,0 l/m 0 min 0 min 0 W/m 12,9 km/h (3 Bft) 97,87 %
19.02.2020 07:32 3,6 C 2,8 C 2,2 C 97 % 1016,5 hPa 0,0 l/m 0 min 0 min 0 W/m 6,4 km/h (2 Bft) 95,74 %
19.02.2020 07:34 3,6 C 2,8 C 2,2 C 97 % 1016,6 hPa 0,0 l/m 0 min 0 min 0 W/m 19,3 km/h (3 Bft) 97,83 %
19.02.2020 07:36 3,6 C 2,8 C 2,2 C 97 % 1016,6 hPa 0,0 l/m 0 min 0 min 0 W/m 0,0 km/h (0 Bft) 100,00 %
19.02.2020 07:38 3,6 C 2,8 C 2,2 C 97 % 1016,6 hPa 0,0 l/m 0 min 0 min 0 W/m 6,4 km/h (2 Bft) 100,00 %
19.02.2020 07:40 3,6 C 2,8 C 2,2 C 97 % 1016,6 hPa 0,0 l/m 0 min 0 min 0 W/m 12,9 km/h (3 Bft) 100,00 %
19.02.2020 07:42 3,6 C 2,8 C 2,2 C 97 % 1016,7 hPa 0,0 l/m 0 min 0 min 0 W/m 9,7 km/h (2 Bft) 97,87 %
19.02.2020 07:44 3,6 C 2,8 C 2,2 C 97 % 1016,7 hPa 0,0 l/m 0 min 0 min 0 W/m 6,4 km/h (2 Bft) 100,00 %
19.02.2020 07:46 3,6 C 2,8 C 2,2 C 96 % 1016,8 hPa 0,0 l/m 0 min 0 min 4 W/m 12,9 km/h (3 Bft) 97,83 %
19.02.2020 07:48 3,6 C 2,8 C 2,2 C 96 % 1016,8 hPa 0,0 l/m 0 min 0 min 5 W/m 3,2 km/h (1 Bft) 100,00 %
19.02.2020 07:50 3,6 C 2,8 C 2,2 C 96 % 1016,9 hPa 0,2 l/m 0 min 0 min 5 W/m 0,0 km/h (0 Bft) 100,00 %
19.02.2020 07:52 3,5 C 2,2 C 2,2 C 96 % 1016,9 hPa 0,0 l/m 0 min 0 min 6 W/m 9,7 km/h (2 Bft) 95,74 %
19.02.2020 07:54 3,5 C 2,2 C 2,2 C 96 % 1016,9 hPa 0,0 l/m 0 min 0 min 7 W/m 12,9 km/h (3 Bft) 100,00 %
19.02.2020 07:56 3,5 C 2,8 C 2,2 C 96 % 1017,0 hPa 0,0 l/m 0 min 0 min 7 W/m 12,9 km/h (3 Bft) 91,49 %
19.02.2020 07:58 3,5 C 2,8 C 2,2 C 96 % 1017,0 hPa 0,0 l/m 0 min 0 min 8 W/m 12,9 km/h (3 Bft) 93,48 %
19.02.2020 08:00 3,5 C 2,8 C 2,2 C 96 % 1017,1 hPa 0,0 l/m 0 min 0 min 9 W/m 16,1 km/h (3 Bft) 97,87 %
19.02.2020 08:02 3,5 C 2,8 C 2,2 C 96 % 1017,1 hPa 0,0 l/m 0 min 0 min 9 W/m 9,7 km/h (2 Bft) 95,74 %
19.02.2020 08:04 3,4 C 2,2 C 2,2 C 96 % 1017,2 hPa 0,0 l/m 0 min 0 min 11 W/m 9,7 km/h (2 Bft) 95,74 %
19.02.2020 08:06 3,4 C 2,2 C 2,2 C 96 % 1017,3 hPa 0,0 l/m 0 min 0 min 11 W/m 9,7 km/h (2 Bft) 93,62 %
19.02.2020 08:08 3,4 C 2,2 C 2,2 C 96 % 1017,2 hPa 0,0 l/m 0 min 0 min 12 W/m 12,9 km/h (3 Bft) 93,62 %
19.02.2020 08:10 3,4 C 2,2 C 2,2 C 96 % 1017,3 hPa 0,0 l/m 0 min 0 min 13 W/m 6,4 km/h (2 Bft) 95,65 %
19.02.2020 08:12 3,4 C 2,2 C 2,2 C 96 % 1017,3 hPa 0,0 l/m 0 min 0 min 15 W/m 6,4 km/h (2 Bft) 93,62 %
19.02.2020 08:14 3,4 C 2,8 C 2,2 C 96 % 1017,3 hPa 0,0 l/m 0 min 0 min 24 W/m 16,1 km/h (3 Bft) 95,74 %
19.02.2020 08:16 3,4 C 2,8 C 2,2 C 96 % 1017,4 hPa 0,0 l/m 0 min 0 min 28 W/m 6,4 km/h (2 Bft) 42,86 %
19.02.2020 08:18 3,4 C 2,8 C 2,2 C 96 % 1017,4 hPa 0,0 l/m 0 min 0 min 27 W/m 12,9 km/h (3 Bft) 95,74 %
19.02.2020 08:20 3,4 C 2,8 C 2,2 C 96 % 1017,5 hPa 0,0 l/m 0 min 0 min 25 W/m 3,2 km/h (1 Bft) 93,48 %
19.02.2020 08:22 3,4 C 2,8 C 2,2 C 96 % 1017,4 hPa 0,0 l/m 0 min 0 min 29 W/m 16,1 km/h (3 Bft) 97,87 %
19.02.2020 08:24 3,4 C 2,8 C 2,2 C 96 % 1017,4 hPa 0,0 l/m 0 min 0 min 31 W/m 6,4 km/h (2 Bft) 93,62 %
19.02.2020 08:26 3,5 C 2,8 C 2,2 C 96 % 1017,5 hPa 0,0 l/m 0 min 0 min 26 W/m 22,5 km/h (4 Bft) 91,49 %
19.02.2020 08:28 3,5 C 2,8 C 2,2 C 96 % 1017,5 hPa 0,0 l/m 0 min 0 min 25 W/m 16,1 km/h (3 Bft) 93,62 %
19.02.2020 08:30 3,6 C 2,8 C 2,2 C 96 % 1017,5 hPa 0,0 l/m 0 min 0 min 26 W/m 9,7 km/h (2 Bft) 93,62 %
19.02.2020 08:32 3,6 C 2,8 C 2,2 C 96 % 1017,5 hPa 0,0 l/m 0 min 0 min 28 W/m 9,7 km/h (2 Bft) 91,30 %
19.02.2020 08:34 3,6 C 2,8 C 2,2 C 96 % 1017,6 hPa 0,0 l/m 0 min 0 min 29 W/m 16,1 km/h (3 Bft) 93,62 %
19.02.2020 08:36 3,6 C 2,8 C 2,2 C 96 % 1017,6 hPa 0,0 l/m 0 min 0 min 31 W/m 16,1 km/h (3 Bft) 89,36 %
19.02.2020 08:38 3,6 C 2,8 C 2,2 C 96 % 1017,6 hPa 0,0 l/m 0 min 0 min 32 W/m 9,7 km/h (2 Bft) 93,62 %
19.02.2020 08:40 3,6 C 2,8 C 2,2 C 96 % 1017,7 hPa 0,0 l/m 0 min 0 min 32 W/m 16,1 km/h (3 Bft) 95,74 %
19.02.2020 08:42 3,6 C 2,8 C 2,2 C 96 % 1017,8 hPa 0,0 l/m 0 min 0 min 33 W/m 9,7 km/h (2 Bft) 95,74 %
19.02.2020 08:44 3,6 C 2,8 C 2,2 C 96 % 1017,7 hPa 0,0 l/m 0 min 0 min 35 W/m 3,2 km/h (1 Bft) 100,00 %
19.02.2020 08:46 3,7 C 2,8 C 2,2 C 96 % 1017,7 hPa 0,0 l/m 0 min 0 min 35 W/m 12,9 km/h (3 Bft) 95,74 %
19.02.2020 08:48 3,7 C 2,8 C 2,2 C 96 % 1017,7 hPa 0,0 l/m 0 min 0 min 35 W/m 6,4 km/h (2 Bft) 97,87 %
19.02.2020 08:50 3,7 C 3,3 C 2,2 C 96 % 1017,8 hPa 0,0 l/m 0 min 0 min 37 W/m 0,0 km/h (0 Bft) 97,87 %
19.02.2020 08:52 3,7 C 3,3 C 2,2 C 96 % 1017,8 hPa 0,0 l/m 0 min 0 min 39 W/m 16,1 km/h (3 Bft) 97,87 %
19.02.2020 08:54 3,7 C 3,3 C 2,2 C 96 % 1017,8 hPa 0,0 l/m 0 min 0 min 40 W/m 6,4 km/h (2 Bft) 97,87 %
19.02.2020 08:56 3,7 C 3,3 C 2,2 C 96 % 1017,8 hPa 0,0 l/m 0 min 0 min 40 W/m 6,4 km/h (2 Bft) 95,65 %
19.02.2020 08:58 3,7 C 3,3 C 2,8 C 96 % 1017,8 hPa 0,0 l/m 0 min 0 min 40 W/m 3,2 km/h (1 Bft) 97,87 %
19.02.2020 09:00 3,7 C 3,3 C 2,2 C 96 % 1017,9 hPa 0,0 l/m 0 min 0 min 42 W/m 3,2 km/h (1 Bft) 97,87 %
19.02.2020 09:02 3,7 C 3,3 C 2,8 C 96 % 1017,9 hPa 0,0 l/m 0 min 0 min 43 W/m 3,2 km/h (1 Bft) 95,74 %
19.02.2020 09:04 3,8 C 3,3 C 2,8 C 96 % 1017,9 hPa 0,0 l/m 0 min 0 min 44 W/m 6,4 km/h (2 Bft) 97,87 %
19.02.2020 09:06 3,8 C 3,3 C 2,8 C 96 % 1018,0 hPa 0,0 l/m 0 min 0 min 46 W/m 3,2 km/h (1 Bft) 97,87 %
19.02.2020 09:08 3,8 C 3,3 C 2,8 C 96 % 1018,0 hPa 0,0 l/m 0 min 0 min 49 W/m 16,1 km/h (3 Bft) 97,83 %
19.02.2020 09:10 3,8 C 3,3 C 2,8 C 96 % 1018,0 hPa 0,0 l/m 0 min 0 min 54 W/m 6,4 km/h (2 Bft) 97,87 %
19.02.2020 09:12 3,8 C 3,3 C 2,8 C 96 % 1018,0 hPa 0,0 l/m 0 min 0 min 53 W/m 22,5 km/h (4 Bft) 100,00 %
19.02.2020 09:14 3,9 C 3,3 C 2,8 C 96 % 1018,1 hPa 0,0 l/m 0 min 0 min 53 W/m 16,1 km/h (3 Bft) 95,74 %
19.02.2020 09:16 3,9 C 3,3 C 2,8 C 96 % 1018,2 hPa 0,0 l/m 0 min 0 min 60 W/m 6,4 km/h (2 Bft) 97,87 %
19.02.2020 09:18 3,9 C 3,9 C 2,8 C 95 % 1018,3 hPa 0,0 l/m 0 min 0 min 62 W/m 19,3 km/h (3 Bft) 97,87 %
19.02.2020 09:20 4,0 C 3,9 C 2,8 C 96 % 1018,3 hPa 0,0 l/m 0 min 0 min 65 W/m 12,9 km/h (3 Bft) 97,83 %
19.02.2020 09:22 4,0 C 3,9 C 2,8 C 95 % 1018,3 hPa 0,0 l/m 0 min 0 min 92 W/m 19,3 km/h (3 Bft) 97,87 %
19.02.2020 09:24 4,1 C 4,4 C 3,3 C 95 % 1018,3 hPa 0,0 l/m 2 min 0 min 122 W/m 12,9 km/h (3 Bft) 100,00 %
19.02.2020 09:26 4,1 C 4,4 C 3,3 C 95 % 1018,2 hPa 0,0 l/m 0 min 0 min 102 W/m 25,7 km/h (4 Bft) 95,74 %
19.02.2020 09:28 4,2 C 4,4 C 3,3 C 95 % 1018,2 hPa 0,0 l/m 0 min 0 min 112 W/m 16,1 km/h (3 Bft) 100,00 %
19.02.2020 09:30 4,2 C 5,6 C 3,3 C 95 % 1018,2 hPa 0,0 l/m 2 min 0 min 139 W/m 9,7 km/h (2 Bft) 100,00 %
19.02.2020 09:32 4,3 C 4,4 C 3,3 C 95 % 1018,3 hPa 0,0 l/m 0 min 0 min 94 W/m 16,1 km/h (3 Bft) 100,00 %
19.02.2020 09:34 4,3 C 5,0 C 3,3 C 95 % 1018,3 hPa 0,0 l/m 0 min 0 min 61 W/m 6,4 km/h (2 Bft) 97,87 %
19.02.2020 09:36 4,3 C 5,6 C 3,3 C 95 % 1018,3 hPa 0,0 l/m 2 min 0 min 164 W/m 9,7 km/h (2 Bft) 100,00 %
19.02.2020 09:38 4,4 C 6,1 C 3,3 C 95 % 1018,3 hPa 0,0 l/m 2 min 0 min 217 W/m 12,9 km/h (3 Bft) 97,87 %
19.02.2020 09:40 4,4 C 6,1 C 3,3 C 95 % 1018,3 hPa 0,0 l/m 2 min 0 min 231 W/m 16,1 km/h (3 Bft) 100,00 %
19.02.2020 09:42 4,5 C 6,7 C 3,3 C 94 % 1018,4 hPa 0,0 l/m 2 min 0 min 220 W/m 16,1 km/h (3 Bft) 97,83 %
19.02.2020 09:44 4,6 C 6,7 C 3,3 C 94 % 1018,4 hPa 0,0 l/m 2 min 0 min 223 W/m 16,1 km/h (3 Bft) 100,00 %
19.02.2020 09:46 4,7 C 6,7 C 3,3 C 94 % 1018,5 hPa 0,0 l/m 2 min 0 min 255 W/m 12,9 km/h (3 Bft) 100,00 %
19.02.2020 09:48 4,7 C 6,1 C 3,3 C 94 % 1018,5 hPa 0,0 l/m 2 min 0 min 261 W/m 22,5 km/h (4 Bft) 97,87 %
19.02.2020 09:50 4,8 C 5,6 C 3,3 C 93 % 1018,5 hPa 0,0 l/m 2 min 0 min 199 W/m 32,2 km/h (5 Bft) 97,87 %
19.02.2020 09:52 4,9 C 6,7 C 3,3 C 93 % 1018,5 hPa 0,0 l/m 2 min 0 min 219 W/m 16,1 km/h (3 Bft) 97,87 %
19.02.2020 09:54 4,9 C 6,7 C 3,3 C 92 % 1018,5 hPa 0,0 l/m 2 min 0 min 284 W/m 25,7 km/h (4 Bft) 100,00 %
19.02.2020 09:56 5,0 C 6,7 C 3,3 C 92 % 1018,6 hPa 0,0 l/m 0 min 0 min 115 W/m 16,1 km/h (3 Bft) 100,00 %
19.02.2020 09:58 5,1 C 7,2 C 3,9 C 92 % 1018,6 hPa 0,0 l/m 2 min 0 min 283 W/m 22,5 km/h (4 Bft) 100,00 %
19.02.2020 10:00 5,1 C 7,8 C 3,9 C 92 % 1018,7 hPa 0,0 l/m 2 min 0 min 293 W/m 16,1 km/h (3 Bft) 100,00 %
19.02.2020 10:02 5,2 C 8,3 C 3,9 C 91 % 1018,8 hPa 0,0 l/m 2 min 0 min 312 W/m 6,4 km/h (2 Bft) 100,00 %
19.02.2020 10:04 5,2 C 7,8 C 3,9 C 91 % 1018,8 hPa 0,0 l/m 2 min 0 min 226 W/m 12,9 km/h (3 Bft) 100,00 %
19.02.2020 10:06 5,3 C 7,8 C 3,9 C 91 % 1018,8 hPa 0,0 l/m 2 min 0 min 209 W/m 12,9 km/h (3 Bft) 100,00 %
19.02.2020 10:08 5,4 C 6,7 C 4,4 C 91 % 1018,8 hPa 0,0 l/m 0 min 0 min 146 W/m 12,9 km/h (3 Bft) 100,00 %
19.02.2020 10:10 5,4 C 6,1 C 3,9 C 91 % 1018,9 hPa 0,0 l/m 0 min 0 min 100 W/m 16,1 km/h (3 Bft) 100,00 %
19.02.2020 10:12 5,4 C 5,6 C 3,9 C 90 % 1018,9 hPa 0,0 l/m 0 min 0 min 74 W/m 12,9 km/h (3 Bft) 100,00 %
19.02.2020 10:14 5,4 C 5,6 C 3,9 C 90 % 1018,9 hPa 0,0 l/m 0 min 0 min 81 W/m 22,5 km/h (4 Bft) 100,00 %
19.02.2020 10:16 5,4 C 5,0 C 3,9 C 90 % 1018,9 hPa 0,0 l/m 0 min 0 min 91 W/m 12,9 km/h (3 Bft) 100,00 %
19.02.2020 10:18 5,4 C 5,0 C 3,9 C 89 % 1019,0 hPa 0,0 l/m 0 min 0 min 113 W/m 19,3 km/h (3 Bft) 97,87 %
19.02.2020 10:20 5,4 C 5,6 C 3,9 C 89 % 1019,0 hPa 0,0 l/m 0 min 0 min 146 W/m 19,3 km/h (3 Bft) 100,00 %
19.02.2020 10:22 5,4 C 5,6 C 3,9 C 89 % 1019,0 hPa 0,0 l/m 0 min 0 min 128 W/m 12,9 km/h (3 Bft) 97,87 %
19.02.2020 10:24 5,4 C 5,6 C 3,9 C 89 % 1019,0 hPa 0,0 l/m 0 min 0 min 143 W/m 16,1 km/h (3 Bft) 100,00 %
19.02.2020 10:26 5,4 C 5,6 C 4,4 C 89 % 1019,1 hPa 0,0 l/m 0 min 0 min 133 W/m 12,9 km/h (3 Bft) 95,74 %
19.02.2020 10:28 5,4 C 5,6 C 3,9 C 89 % 1019,1 hPa 0,0 l/m 0 min 0 min 96 W/m 12,9 km/h (3 Bft) 95,65 %
19.02.2020 10:30 5,4 C 6,7 C 3,9 C 89 % 1019,2 hPa 0,0 l/m 0 min 0 min 107 W/m 9,7 km/h (2 Bft) 97,87 %
19.02.2020 10:32 5,4 C 7,8 C 4,4 C 89 % 1019,2 hPa 0,0 l/m 2 min 0 min 324 W/m 12,9 km/h (3 Bft) 95,74 %
19.02.2020 10:34 5,6 C 8,3 C 4,4 C 89 % 1019,1 hPa 0,0 l/m 2 min 0 min 292 W/m 9,7 km/h (2 Bft) 93,62 %
19.02.2020 10:36 5,6 C 8,3 C 4,4 C 89 % 1019,1 hPa 0,0 l/m 2 min 0 min 294 W/m 19,3 km/h (3 Bft) 97,87 %
19.02.2020 10:38 5,7 C 9,4 C 4,4 C 88 % 1019,1 hPa 0,0 l/m 2 min 0 min 307 W/m 16,1 km/h (3 Bft) 95,74 %
19.02.2020 10:40 5,8 C 10,0 C 5,0 C 88 % 1019,0 hPa 0,0 l/m 2 min 0 min 422 W/m 25,7 km/h (4 Bft) 89,13 %
19.02.2020 10:42 5,9 C 10,0 C 5,0 C 88 % 1019,1 hPa 0,0 l/m 2 min 0 min 423 W/m 12,9 km/h (3 Bft) 97,87 %
19.02.2020 10:44 5,9 C 9,4 C 4,4 C 88 % 1019,2 hPa 0,0 l/m 2 min 0 min 391 W/m 16,1 km/h (3 Bft) 97,87 %
19.02.2020 10:46 6,1 C 8,3 C 5,0 C 88 % 1019,1 hPa 0,0 l/m 2 min 0 min 425 W/m 19,3 km/h (3 Bft) 93,62 %
19.02.2020 10:48 6,1 C 7,8 C 5,0 C 87 % 1019,2 hPa 0,0 l/m 2 min 0 min 425 W/m 12,9 km/h (3 Bft) 95,74 %
19.02.2020 10:50 6,2 C 8,9 C 5,0 C 87 % 1019,3 hPa 0,0 l/m 0 min 0 min 169 W/m 9,7 km/h (2 Bft) 97,87 %
19.02.2020 10:52 6,2 C 10,0 C 5,0 C 87 % 1019,2 hPa 0,0 l/m 2 min 0 min 394 W/m 19,3 km/h (3 Bft) 97,83 %
19.02.2020 10:54 6,3 C 8,9 C 5,0 C 87 % 1019,2 hPa 0,2 l/m 2 min 0 min 499 W/m 16,1 km/h (3 Bft) 95,74 %
19.02.2020 10:56 6,3 C 8,3 C 4,4 C 86 % 1019,2 hPa 0,0 l/m 0 min 0 min 137 W/m 19,3 km/h (3 Bft) 93,62 %
19.02.2020 10:58 6,4 C 10,0 C 5,0 C 86 % 1019,2 hPa 0,0 l/m 2 min 0 min 346 W/m 12,9 km/h (3 Bft) 97,87 %
19.02.2020 11:00 6,5 C 10,6 C 5,0 C 86 % 1019,2 hPa 0,0 l/m 2 min 0 min 474 W/m 19,3 km/h (3 Bft) 95,74 %
19.02.2020 11:02 6,6 C 10,0 C 5,0 C 86 % 1019,3 hPa 0,0 l/m 2 min 0 min 433 W/m 22,5 km/h (4 Bft) 89,36 %
19.02.2020 11:04 6,6 C 10,6 C 5,0 C 85 % 1019,4 hPa 0,0 l/m 2 min 0 min 394 W/m 16,1 km/h (3 Bft) 93,48 %
19.02.2020 11:06 6,7 C 10,6 C 5,6 C 85 % 1019,4 hPa 0,0 l/m 2 min 0 min 395 W/m 12,9 km/h (3 Bft) 93,62 %
19.02.2020 11:08 6,8 C 11,7 C 5,6 C 85 % 1019,4 hPa 0,0 l/m 2 min 0 min 486 W/m 12,9 km/h (3 Bft) 97,87 %
19.02.2020 11:10 6,9 C 12,2 C 6,1 C 85 % 1019,5 hPa 0,0 l/m 2 min 0 min 466 W/m 19,3 km/h (3 Bft) 95,74 %
19.02.2020 11:12 7,1 C 12,2 C 6,7 C 85 % 1019,4 hPa 0,0 l/m 2 min 0 min 397 W/m 19,3 km/h (3 Bft) 95,74 %
19.02.2020 11:14 7,1 C 11,7 C 6,7 C 84 % 1019,5 hPa 0,0 l/m 2 min 0 min 477 W/m 19,3 km/h (3 Bft) 97,87 %
19.02.2020 11:16 7,2 C 10,0 C 6,7 C 83 % 1019,6 hPa 0,0 l/m 2 min 0 min 378 W/m 25,7 km/h (4 Bft) 97,83 %
19.02.2020 11:18 7,2 C 8,3 C 6,7 C 82 % 1019,5 hPa 0,0 l/m 2 min 0 min 219 W/m 22,5 km/h (4 Bft) 97,87 %
19.02.2020 11:20 7,2 C 7,8 C 6,7 C 81 % 1019,6 hPa 0,0 l/m 0 min 0 min 159 W/m 25,7 km/h (4 Bft) 93,62 %
19.02.2020 11:22 7,1 C 7,2 C 6,7 C 81 % 1019,6 hPa 0,0 l/m 0 min 0 min 133 W/m 22,5 km/h (4 Bft) 95,74 %
19.02.2020 11:24 7,1 C 6,7 C 6,7 C 80 % 1019,7 hPa 0,0 l/m 0 min 0 min 134 W/m 35,4 km/h (5 Bft) 95,74 %
19.02.2020 11:26 7,1 C 6,7 C 6,7 C 80 % 1019,7 hPa 0,0 l/m 0 min 0 min 109 W/m 25,7 km/h (4 Bft) 93,48 %
19.02.2020 11:28 7,0 C 6,7 C 6,1 C 80 % 1019,8 hPa 0,0 l/m 0 min 0 min 91 W/m 16,1 km/h (3 Bft) 95,74 %
19.02.2020 11:30 7,0 C 6,7 C 6,1 C 81 % 1019,8 hPa 0,0 l/m 0 min 0 min 129 W/m 19,3 km/h (3 Bft) 93,62 %
19.02.2020 11:32 7,0 C 6,7 C 6,1 C 81 % 1019,9 hPa 0,0 l/m 0 min 0 min 118 W/m 12,9 km/h (3 Bft) 93,62 %
19.02.2020 11:34 6,9 C 6,7 C 6,1 C 81 % 1019,9 hPa 0,0 l/m 0 min 0 min 119 W/m 22,5 km/h (4 Bft) 95,74 %
19.02.2020 11:36 6,9 C 6,7 C 6,7 C 81 % 1019,8 hPa 0,0 l/m 0 min 0 min 159 W/m 22,5 km/h (4 Bft) 95,74 %
19.02.2020 11:38 6,9 C 6,7 C 6,7 C 81 % 1019,8 hPa 0,0 l/m 0 min 0 min 135 W/m 19,3 km/h (3 Bft) 95,65 %
19.02.2020 11:40 6,8 C 6,7 C 6,7 C 80 % 1019,9 hPa 0,0 l/m 0 min 0 min 146 W/m 19,3 km/h (3 Bft) 93,62 %
19.02.2020 11:42 6,8 C 6,7 C 6,7 C 80 % 1019,9 hPa 0,0 l/m 0 min 0 min 170 W/m 25,7 km/h (4 Bft) 97,87 %
19.02.2020 11:44 6,8 C 6,7 C 6,7 C 80 % 1020,0 hPa 0,0 l/m 0 min 0 min 142 W/m 22,5 km/h (4 Bft) 95,74 %
19.02.2020 11:46 6,8 C 6,7 C 6,7 C 81 % 1020,0 hPa 0,0 l/m 0 min 0 min 140 W/m 19,3 km/h (3 Bft) 95,74 %
19.02.2020 11:48 6,8 C 6,7 C 6,7 C 81 % 1020,0 hPa 0,0 l/m 0 min 0 min 120 W/m 32,2 km/h (5 Bft) 95,74 %
19.02.2020 11:50 6,8 C 6,7 C 6,7 C 80 % 1020,1 hPa 0,0 l/m 0 min 0 min 152 W/m 22,5 km/h (4 Bft) 95,65 %
19.02.2020 11:52 6,8 C 7,2 C 6,7 C 80 % 1020,1 hPa 0,0 l/m 0 min 0 min 193 W/m 22,5 km/h (4 Bft) 95,74 %
19.02.2020 11:54 6,8 C 7,2 C 6,7 C 80 % 1020,2 hPa 0,0 l/m 0 min 0 min 185 W/m 25,7 km/h (4 Bft) 95,74 %
19.02.2020 11:56 6,8 C 6,7 C 6,7 C 80 % 1020,2 hPa 0,0 l/m 0 min 0 min 175 W/m 19,3 km/h (3 Bft) 93,62 %
19.02.2020 11:58 6,8 C 6,7 C 6,7 C 80 % 1020,2 hPa 0,0 l/m 0 min 0 min 173 W/m 16,1 km/h (3 Bft) 95,74 %
19.02.2020 12:00 6,8 C 7,2 C 6,7 C 80 % 1020,3 hPa 0,0 l/m 0 min 0 min 167 W/m 16,1 km/h (3 Bft) 97,87 %
19.02.2020 12:02 6,8 C 6,7 C 6,7 C 80 % 1020,4 hPa 0,0 l/m 0 min 0 min 151 W/m 22,5 km/h (4 Bft) 95,65 %
19.02.2020 12:04 6,8 C 6,7 C 6,7 C 80 % 1020,3 hPa 0,0 l/m 0 min 0 min 134 W/m 19,3 km/h (3 Bft) 95,74 %
19.02.2020 12:08 6,8 C 6,7 C 6,1 C 79 % 1020,3 hPa 0,0 l/m 0 min 0 min 116 W/m 22,5 km/h (4 Bft) 94,68 %
19.02.2020 12:10 6,7 C 6,7 C 6,1 C 79 % 1020,4 hPa 0,0 l/m 0 min 0 min 110 W/m 22,5 km/h (4 Bft) 95,74 %
19.02.2020 12:12 6,7 C 6,7 C 6,1 C 79 % 1020,4 hPa 0,0 l/m 0 min 0 min 113 W/m 19,3 km/h (3 Bft) 97,87 %
19.02.2020 12:14 6,7 C 6,7 C 6,1 C 79 % 1020,4 hPa 0,0 l/m 0 min 0 min 129 W/m 12,9 km/h (3 Bft) 97,83 %
19.02.2020 12:16 6,7 C 7,2 C 6,1 C 79 % 1020,5 hPa 0,0 l/m 0 min 0 min 178 W/m 12,9 km/h (3 Bft) 97,87 %
19.02.2020 12:18 6,7 C 7,8 C 6,7 C 79 % 1020,5 hPa 0,0 l/m 0 min 0 min 219 W/m 16,1 km/h (3 Bft) 97,87 %
19.02.2020 12:20 6,8 C 7,8 C 6,7 C 80 % 1020,6 hPa 0,0 l/m 0 min 0 min 213 W/m 16,1 km/h (3 Bft) 95,74 %
19.02.2020 12:22 6,8 C 10,0 C 7,2 C 80 % 1020,6 hPa 0,0 l/m 0 min 0 min 216 W/m 9,7 km/h (2 Bft) 97,87 %
19.02.2020 12:24 6,9 C 9,4 C 7,8 C 80 % 1020,6 hPa 0,0 l/m 2 min 0 min 322 W/m 12,9 km/h (3 Bft) 100,00 %
19.02.2020 12:26 7,1 C 8,9 C 7,2 C 80 % 1020,5 hPa 0,0 l/m 2 min 0 min 257 W/m 12,9 km/h (3 Bft) 95,74 %
19.02.2020 12:28 7,1 C 8,3 C 7,8 C 80 % 1020,5 hPa 0,0 l/m 0 min 0 min 223 W/m 16,1 km/h (3 Bft) 100,00 %
19.02.2020 12:30 7,2 C 8,3 C 7,2 C 79 % 1020,6 hPa 0,0 l/m 2 min 0 min 310 W/m 29,0 km/h (5 Bft) 100,00 %
19.02.2020 12:32 7,2 C 7,8 C 7,2 C 78 % 1020,5 hPa 0,0 l/m 0 min 0 min 209 W/m 16,1 km/h (3 Bft) 95,74 %
19.02.2020 12:34 7,2 C 7,8 C 7,2 C 78 % 1020,5 hPa 0,0 l/m 0 min 0 min 213 W/m 16,1 km/h (3 Bft) 100,00 %
19.02.2020 12:36 7,2 C 7,8 C 7,2 C 77 % 1020,6 hPa 0,0 l/m 0 min 0 min 222 W/m 19,3 km/h (3 Bft) 100,00 %
19.02.2020 12:38 7,2 C 8,3 C 7,2 C 77 % 1020,6 hPa 0,0 l/m 2 min 0 min 255 W/m 22,5 km/h (4 Bft) 100,00 %
19.02.2020 12:40 7,3 C 8,3 C 7,2 C 77 % 1020,6 hPa 0,0 l/m 2 min 0 min 237 W/m 16,1 km/h (3 Bft) 100,00 %
19.02.2020 12:42 7,3 C 8,3 C 7,2 C 77 % 1020,6 hPa 0,0 l/m 0 min 0 min 191 W/m 12,9 km/h (3 Bft) 100,00 %
19.02.2020 12:44 7,3 C 7,8 C 7,2 C 76 % 1020,5 hPa 0,0 l/m 0 min 0 min 186 W/m 16,1 km/h (3 Bft) 100,00 %
19.02.2020 12:46 7,3 C 8,3 C 7,8 C 76 % 1020,5 hPa 0,0 l/m 0 min 0 min 196 W/m 22,5 km/h (4 Bft) 100,00 %
19.02.2020 12:48 7,3 C 8,3 C 7,8 C 75 % 1020,6 hPa 0,0 l/m 0 min 0 min 199 W/m 19,3 km/h (3 Bft) 98,28 %
19.02.2020 12:50 7,3 C 8,3 C 7,2 C 75 % 1020,6 hPa 0,0 l/m 0 min 0 min 210 W/m 29,0 km/h (5 Bft) 97,87 %
19.02.2020 12:52 7,3 C 8,3 C 7,2 C 75 % 1020,7 hPa 0,0 l/m 0 min 0 min 173 W/m 16,1 km/h (3 Bft) 97,87 %
19.02.2020 12:54 7,4 C 9,4 C 8,3 C 75 % 1020,7 hPa 0,0 l/m 2 min 0 min 462 W/m 19,3 km/h (3 Bft) 97,87 %
19.02.2020 12:56 7,4 C 8,9 C 7,8 C 74 % 1020,7 hPa 0,0 l/m 2 min 0 min 628 W/m 19,3 km/h (3 Bft) 97,87 %
19.02.2020 12:58 7,4 C 8,3 C 7,2 C 74 % 1020,7 hPa 0,0 l/m 0 min 0 min 189 W/m 19,3 km/h (3 Bft) 97,87 %
19.02.2020 13:00 7,4 C 7,8 C 7,2 C 74 % 1020,7 hPa 0,0 l/m 0 min 0 min 160 W/m 22,5 km/h (4 Bft) 97,83 %
19.02.2020 13:02 7,4 C 8,3 C 7,8 C 74 % 1020,7 hPa 0,0 l/m 0 min 0 min 176 W/m 22,5 km/h (4 Bft) 97,87 %
19.02.2020 13:04 7,4 C 9,4 C 8,3 C 74 % 1020,7 hPa 0,0 l/m 0 min 0 min 228 W/m 19,3 km/h (3 Bft) 93,62 %
19.02.2020 13:06 7,5 C 11,1 C 10,0 C 74 % 1020,8 hPa 0,0 l/m 2 min 0 min 292 W/m 19,3 km/h (3 Bft) 97,87 %
19.02.2020 13:08 7,6 C 12,2 C 11,1 C 75 % 1020,7 hPa 0,0 l/m 2 min 0 min 421 W/m 19,3 km/h (3 Bft) 97,87 %
19.02.2020 13:10 7,7 C 11,1 C 10,0 C 74 % 1020,7 hPa 0,0 l/m 2 min 0 min 557 W/m 22,5 km/h (4 Bft) 97,87 %
19.02.2020 13:12 7,8 C 12,8 C 10,6 C 74 % 1020,7 hPa 0,0 l/m 2 min 0 min 536 W/m 12,9 km/h (3 Bft) 97,83 %
19.02.2020 13:14 8,0 C 12,8 C 11,7 C 74 % 1020,7 hPa 0,0 l/m 2 min 0 min 471 W/m 16,1 km/h (3 Bft) 97,87 %
19.02.2020 13:16 8,2 C 11,1 C 9,4 C 73 % 1020,8 hPa 0,0 l/m 2 min 0 min 470 W/m 38,6 km/h (5 Bft) 96,00 %
19.02.2020 13:18 8,2 C 11,7 C 9,4 C 71 % 1020,7 hPa 0,0 l/m 2 min 0 min 469 W/m 16,1 km/h (3 Bft) 97,87 %
19.02.2020 13:20 8,3 C 12,2 C 9,4 C 72 % 1020,8 hPa 0,0 l/m 2 min 0 min 628 W/m 22,5 km/h (4 Bft) 93,62 %
19.02.2020 13:22 8,4 C 10,6 C 8,9 C 71 % 1020,7 hPa 0,0 l/m 2 min 0 min 433 W/m 19,3 km/h (3 Bft) 97,83 %
19.02.2020 13:24 8,4 C 11,7 C 8,9 C 70 % 1020,8 hPa 0,0 l/m 2 min 0 min 250 W/m 32,2 km/h (5 Bft) 97,87 %
19.02.2020 13:26 8,6 C 11,7 C 8,9 C 70 % 1020,8 hPa 0,0 l/m 2 min 0 min 588 W/m 16,1 km/h (3 Bft) 100,00 %
19.02.2020 13:28 8,6 C 10,6 C 8,9 C 70 % 1020,9 hPa 0,0 l/m 2 min 0 min 479 W/m 19,3 km/h (3 Bft) 100,00 %
19.02.2020 13:30 8,6 C 12,2 C 8,9 C 70 % 1020,9 hPa 0,0 l/m 2 min 0 min 364 W/m 22,5 km/h (4 Bft) 100,00 %
19.02.2020 13:32 8,7 C 12,2 C 8,9 C 70 % 1020,8 hPa 0,0 l/m 2 min 0 min 463 W/m 12,9 km/h (3 Bft) 100,00 %
19.02.2020 13:34 8,8 C 10,6 C 8,9 C 71 % 1020,9 hPa 0,0 l/m 2 min 0 min 273 W/m 16,1 km/h (3 Bft) 97,83 %
19.02.2020 13:36 8,8 C 10,0 C 8,3 C 71 % 1020,9 hPa 0,0 l/m 2 min 0 min 259 W/m 19,3 km/h (3 Bft) 100,00 %
19.02.2020 13:38 8,8 C 11,7 C 8,9 C 71 % 1020,9 hPa 0,0 l/m 2 min 0 min 290 W/m 19,3 km/h (3 Bft) 97,87 %
19.02.2020 13:40 8,8 C 12,2 C 8,9 C 71 % 1020,9 hPa 0,0 l/m 2 min 0 min 294 W/m 22,5 km/h (4 Bft) 100,00 %
19.02.2020 13:42 8,8 C 13,3 C 9,4 C 71 % 1020,8 hPa 0,0 l/m 2 min 0 min 567 W/m 16,1 km/h (3 Bft) 100,00 %
19.02.2020 13:44 8,9 C 12,2 C 8,9 C 70 % 1020,8 hPa 0,0 l/m 2 min 0 min 456 W/m 19,3 km/h (3 Bft) 100,00 %
19.02.2020 13:46 8,9 C 11,1 C 8,9 C 70 % 1020,8 hPa 0,0 l/m 2 min 0 min 455 W/m 12,9 km/h (3 Bft) 100,00 %
19.02.2020 13:48 8,9 C 10,0 C 8,9 C 70 % 1020,8 hPa 0,0 l/m 2 min 0 min 549 W/m 19,3 km/h (3 Bft) 100,00 %
19.02.2020 13:50 8,9 C 9,4 C 8,3 C 69 % 1020,9 hPa 0,0 l/m 2 min 0 min 352 W/m 16,1 km/h (3 Bft) 100,00 %
19.02.2020 13:52 8,8 C 9,4 C 8,3 C 69 % 1020,8 hPa 0,0 l/m 2 min 0 min 281 W/m 25,7 km/h (4 Bft) 100,00 %
19.02.2020 13:54 8,8 C 8,3 C 7,8 C 69 % 1020,9 hPa 0,0 l/m 2 min 0 min 249 W/m 25,7 km/h (4 Bft) 97,83 %
19.02.2020 13:56 8,7 C 8,3 C 7,8 C 70 % 1020,9 hPa 0,0 l/m 2 min 0 min 225 W/m 19,3 km/h (3 Bft) 97,87 %
19.02.2020 13:58 8,6 C 8,9 C 7,8 C 70 % 1021,0 hPa 0,0 l/m 2 min 0 min 250 W/m 29,0 km/h (5 Bft) 100,00 %
19.02.2020 14:00 8,6 C 8,9 C 7,8 C 71 % 1021,1 hPa 0,0 l/m 2 min 0 min 253 W/m 16,1 km/h (3 Bft) 100,00 %
19.02.2020 14:02 8,5 C 9,4 C 7,8 C 71 % 1021,0 hPa 0,0 l/m 2 min 0 min 282 W/m 25,7 km/h (4 Bft) 97,92 %
19.02.2020 14:04 8,4 C 10,6 C 7,8 C 71 % 1021,0 hPa 0,0 l/m 2 min 0 min 473 W/m 19,3 km/h (3 Bft) 95,74 %
19.02.2020 14:06 8,5 C 10,6 C 8,3 C 72 % 1021,0 hPa 0,0 l/m 2 min 0 min 513 W/m 29,0 km/h (5 Bft) 97,87 %
19.02.2020 14:08 8,4 C 9,4 C 7,8 C 72 % 1021,0 hPa 0,0 l/m 2 min 0 min 500 W/m 22,5 km/h (4 Bft) 43,24 %
19.02.2020 14:10 8,4 C 10,0 C 7,8 C 72 % 1021,0 hPa 0,0 l/m 0 min 0 min 200 W/m 16,1 km/h (3 Bft) 96,49 %
19.02.2020 14:12 8,4 C 8,9 C 7,8 C 72 % 1021,0 hPa 0,0 l/m 0 min 0 min 171 W/m 25,7 km/h (4 Bft) 97,87 %
19.02.2020 14:14 8,4 C 8,3 C 7,8 C 72 % 1021,0 hPa 0,0 l/m 0 min 0 min 114 W/m 19,3 km/h (3 Bft) 97,87 %
19.02.2020 14:16 8,3 C 7,8 C 7,2 C 72 % 1021,1 hPa 0,0 l/m 0 min 0 min 86 W/m 19,3 km/h (3 Bft) 97,87 %
19.02.2020 14:18 8,3 C 7,2 C 7,2 C 73 % 1021,1 hPa 0,0 l/m 0 min 0 min 78 W/m 19,3 km/h (3 Bft) 97,87 %
19.02.2020 14:20 8,2 C 7,2 C 7,2 C 73 % 1021,1 hPa 0,0 l/m 0 min 0 min 64 W/m 16,1 km/h (3 Bft) 97,83 %
19.02.2020 14:22 8,1 C 8,3 C 7,2 C 73 % 1021,1 hPa 0,0 l/m 0 min 0 min 122 W/m 29,0 km/h (5 Bft) 97,87 %
19.02.2020 14:24 8,1 C 8,9 C 7,2 C 74 % 1021,1 hPa 0,0 l/m 2 min 0 min 282 W/m 12,9 km/h (3 Bft) 97,87 %
19.02.2020 14:26 8,1 C 9,4 C 7,8 C 74 % 1021,1 hPa 0,0 l/m 2 min 0 min 331 W/m 16,1 km/h (3 Bft) 97,87 %
19.02.2020 14:28 8,1 C 9,4 C 7,8 C 74 % 1021,2 hPa 0,0 l/m 2 min 0 min 331 W/m 16,1 km/h (3 Bft) 97,87 %
19.02.2020 14:30 8,1 C 8,9 C 7,8 C 74 % 1021,1 hPa 0,0 l/m 0 min 0 min 154 W/m 19,3 km/h (3 Bft) 97,87 %
19.02.2020 14:32 8,1 C 10,0 C 7,8 C 74 % 1021,1 hPa 0,0 l/m 0 min 0 min 183 W/m 19,3 km/h (3 Bft) 97,83 %
19.02.2020 14:34 8,1 C 10,6 C 7,8 C 74 % 1021,2 hPa 0,0 l/m 2 min 0 min 464 W/m 19,3 km/h (3 Bft) 95,74 %
19.02.2020 14:36 8,1 C 8,9 C 7,2 C 73 % 1021,2 hPa 0,0 l/m 2 min 0 min 342 W/m 22,5 km/h (4 Bft) 95,74 %
19.02.2020 14:38 8,1 C 8,3 C 7,2 C 73 % 1021,1 hPa 0,0 l/m 0 min 0 min 154 W/m 25,7 km/h (4 Bft) 97,87 %
19.02.2020 14:40 8,1 C 7,8 C 7,2 C 73 % 1021,2 hPa 0,0 l/m 0 min 0 min 161 W/m 19,3 km/h (3 Bft) 97,87 %
19.02.2020 14:42 8,0 C 8,9 C 7,2 C 73 % 1021,2 hPa 0,0 l/m 2 min 0 min 229 W/m 19,3 km/h (3 Bft) 95,74 %
19.02.2020 14:44 7,9 C 8,3 C 7,2 C 73 % 1021,1 hPa 0,0 l/m 2 min 0 min 220 W/m 22,5 km/h (4 Bft) 97,83 %
19.02.2020 14:46 7,9 C 9,4 C 7,8 C 73 % 1021,1 hPa 0,0 l/m 2 min 0 min 223 W/m 12,9 km/h (3 Bft) 97,87 %
19.02.2020 14:48 8,0 C 10,6 C 7,8 C 74 % 1021,1 hPa 0,0 l/m 2 min 0 min 282 W/m 22,5 km/h (4 Bft) 100,00 %
19.02.2020 14:50 8,1 C 10,6 C 7,8 C 75 % 1021,1 hPa 0,0 l/m 2 min 0 min 377 W/m 19,3 km/h (3 Bft) 100,00 %
19.02.2020 14:52 8,1 C 9,4 C 7,8 C 74 % 1021,2 hPa 0,0 l/m 2 min 0 min 351 W/m 19,3 km/h (3 Bft) 97,87 %
19.02.2020 14:54 8,1 C 8,3 C 7,2 C 74 % 1021,1 hPa 0,0 l/m 0 min 0 min 156 W/m 16,1 km/h (3 Bft) 100,00 %
19.02.2020 14:56 8,1 C 7,8 C 7,2 C 75 % 1021,2 hPa 0,0 l/m 0 min 0 min 101 W/m 19,3 km/h (3 Bft) 97,87 %
19.02.2020 14:58 8,1 C 7,8 C 6,7 C 74 % 1021,2 hPa 0,0 l/m 0 min 0 min 119 W/m 16,1 km/h (3 Bft) 100,00 %
19.02.2020 15:00 8,0 C 8,3 C 6,7 C 74 % 1021,2 hPa 0,0 l/m 0 min 0 min 149 W/m 19,3 km/h (3 Bft) 100,00 %
19.02.2020 15:02 7,9 C 10,0 C 7,2 C 74 % 1021,2 hPa 0,0 l/m 2 min 0 min 371 W/m 19,3 km/h (3 Bft) 100,00 %
19.02.2020 15:04 8,0 C 10,0 C 7,2 C 75 % 1021,2 hPa 0,0 l/m 2 min 0 min 323 W/m 12,9 km/h (3 Bft) 100,00 %
19.02.2020 15:06 8,0 C 10,6 C 7,2 C 75 % 1021,2 hPa 0,0 l/m 2 min 0 min 324 W/m 16,1 km/h (3 Bft) 97,83 %
19.02.2020 15:08 8,1 C 10,6 C 7,8 C 74 % 1021,2 hPa 0,0 l/m 2 min 0 min 322 W/m 16,1 km/h (3 Bft) 93,62 %
19.02.2020 15:10 8,1 C 10,6 C 7,8 C 74 % 1021,2 hPa 0,0 l/m 2 min 0 min 346 W/m 19,3 km/h (3 Bft) 97,87 %
19.02.2020 15:12 8,1 C 10,6 C 7,8 C 73 % 1021,3 hPa 0,0 l/m 2 min 0 min 321 W/m 19,3 km/h (3 Bft) 97,87 %
19.02.2020 15:14 8,2 C 10,0 C 7,8 C 73 % 1021,2 hPa 0,0 l/m 2 min 0 min 320 W/m 25,7 km/h (4 Bft) 97,87 %
19.02.2020 15:16 8,2 C 9,4 C 7,2 C 72 % 1021,3 hPa 0,0 l/m 2 min 0 min 237 W/m 19,3 km/h (3 Bft) 95,65 %
19.02.2020 15:18 8,2 C 9,4 C 7,2 C 72 % 1021,3 hPa 0,0 l/m 2 min 0 min 242 W/m 22,5 km/h (4 Bft) 97,87 %
19.02.2020 15:20 8,1 C 9,4 C 7,2 C 72 % 1021,2 hPa 0,0 l/m 2 min 0 min 234 W/m 22,5 km/h (4 Bft) 97,87 %
19.02.2020 15:22 8,1 C 9,4 C 7,2 C 72 % 1021,3 hPa 0,0 l/m 2 min 0 min 222 W/m 22,5 km/h (4 Bft) 95,74 %
19.02.2020 15:24 8,1 C 8,9 C 7,2 C 71 % 1021,3 hPa 0,0 l/m 2 min 0 min 211 W/m 25,7 km/h (4 Bft) 95,74 %
19.02.2020 15:26 8,1 C 8,9 C 7,2 C 71 % 1021,3 hPa 0,0 l/m 2 min 0 min 210 W/m 19,3 km/h (3 Bft) 95,74 %
19.02.2020 15:28 8,1 C 8,9 C 6,7 C 71 % 1021,3 hPa 0,0 l/m 2 min 0 min 228 W/m 25,7 km/h (4 Bft) 97,83 %
19.02.2020 15:30 8,1 C 8,9 C 6,7 C 72 % 1021,4 hPa 0,0 l/m 2 min 0 min 214 W/m 16,1 km/h (3 Bft) 97,87 %
19.02.2020 15:32 8,0 C 8,9 C 6,7 C 72 % 1021,4 hPa 0,0 l/m 2 min 0 min 195 W/m 22,5 km/h (4 Bft) 95,74 %
19.02.2020 15:34 8,0 C 8,9 C 6,7 C 73 % 1021,5 hPa 0,0 l/m 2 min 0 min 183 W/m 12,9 km/h (3 Bft) 97,87 %
19.02.2020 15:36 8,0 C 9,4 C 6,7 C 73 % 1021,4 hPa 0,0 l/m 2 min 0 min 197 W/m 16,1 km/h (3 Bft) 95,74 %
19.02.2020 15:38 8,0 C 8,9 C 6,7 C 73 % 1021,5 hPa 0,0 l/m 2 min 0 min 184 W/m 19,3 km/h (3 Bft) 93,62 %
19.02.2020 15:40 7,9 C 8,9 C 6,7 C 73 % 1021,5 hPa 0,0 l/m 2 min 0 min 168 W/m 9,7 km/h (2 Bft) 93,48 %
19.02.2020 15:42 7,9 C 8,3 C 6,7 C 73 % 1021,4 hPa 0,0 l/m 0 min 0 min 142 W/m 19,3 km/h (3 Bft) 95,74 %
19.02.2020 15:44 7,9 C 8,3 C 6,7 C 73 % 1021,5 hPa 0,0 l/m 0 min 0 min 116 W/m 12,9 km/h (3 Bft) 93,62 %
19.02.2020 15:46 7,9 C 7,8 C 6,7 C 73 % 1021,5 hPa 0,0 l/m 0 min 0 min 119 W/m 12,9 km/h (3 Bft) 95,74 %
19.02.2020 15:48 7,8 C 7,8 C 6,7 C 73 % 1021,5 hPa 0,0 l/m 0 min 0 min 104 W/m 22,5 km/h (4 Bft) 95,74 %
19.02.2020 15:50 7,8 C 7,8 C 6,7 C 73 % 1021,6 hPa 0,0 l/m 0 min 0 min 130 W/m 12,9 km/h (3 Bft) 97,87 %
19.02.2020 15:52 7,8 C 7,8 C 6,7 C 73 % 1021,6 hPa 0,0 l/m 0 min 0 min 127 W/m 9,7 km/h (2 Bft) 97,83 %
19.02.2020 15:54 7,8 C 7,8 C 6,7 C 73 % 1021,5 hPa 0,0 l/m 0 min 0 min 127 W/m 16,1 km/h (3 Bft) 97,87 %
19.02.2020 15:56 7,7 C 7,8 C 6,7 C 73 % 1021,5 hPa 0,0 l/m 0 min 0 min 123 W/m 19,3 km/h (3 Bft) 95,74 %
19.02.2020 15:58 7,6 C 7,2 C 6,7 C 73 % 1021,5 hPa 0,0 l/m 0 min 0 min 110 W/m 12,9 km/h (3 Bft) 97,87 %
19.02.2020 16:00 7,6 C 7,2 C 6,1 C 73 % 1021,6 hPa 0,0 l/m 0 min 0 min 103 W/m 16,1 km/h (3 Bft) 95,74 %
19.02.2020 16:02 7,6 C 7,2 C 6,1 C 73 % 1021,6 hPa 0,0 l/m 0 min 0 min 100 W/m 6,4 km/h (2 Bft) 97,87 %
19.02.2020 16:04 7,6 C 7,2 C 6,1 C 74 % 1021,5 hPa 0,0 l/m 0 min 0 min 68 W/m 6,4 km/h (2 Bft) 97,78 %
19.02.2020 16:06 7,5 C 6,7 C 6,1 C 74 % 1021,6 hPa 0,0 l/m 0 min 0 min 53 W/m 16,1 km/h (3 Bft) 95,65 %
19.02.2020 16:08 7,4 C 6,7 C 6,1 C 74 % 1021,5 hPa 0,0 l/m 0 min 0 min 46 W/m 16,1 km/h (3 Bft) 97,87 %
19.02.2020 16:10 7,4 C 6,7 C 6,1 C 74 % 1021,6 hPa 0,0 l/m 0 min 0 min 49 W/m 16,1 km/h (3 Bft) 97,87 %
19.02.2020 16:12 7,3 C 6,7 C 6,1 C 74 % 1021,6 hPa 0,0 l/m 0 min 0 min 54 W/m 12,9 km/h (3 Bft) 97,87 %
19.02.2020 16:14 7,3 C 6,7 C 6,1 C 74 % 1021,6 hPa 0,0 l/m 0 min 0 min 49 W/m 9,7 km/h (2 Bft) 97,87 %
19.02.2020 16:16 7,3 C 6,1 C 6,1 C 74 % 1021,6 hPa 0,0 l/m 0 min 0 min 48 W/m 12,9 km/h (3 Bft) 95,65 %
19.02.2020 16:18 7,2 C 6,7 C 5,6 C 74 % 1021,6 hPa 0,0 l/m 0 min 0 min 59 W/m 6,4 km/h (2 Bft) 97,87 %
19.02.2020 16:20 7,2 C 6,7 C 5,6 C 75 % 1021,6 hPa 0,0 l/m 0 min 0 min 68 W/m 6,4 km/h (2 Bft) 97,87 %
19.02.2020 16:22 7,2 C 6,7 C 6,1 C 75 % 1021,6 hPa 0,0 l/m 0 min 0 min 75 W/m 16,1 km/h (3 Bft) 97,87 %
19.02.2020 16:24 7,1 C 6,7 C 6,1 C 74 % 1021,6 hPa 0,0 l/m 0 min 0 min 99 W/m 25,7 km/h (4 Bft) 97,87 %
19.02.2020 16:26 7,1 C 6,7 C 6,1 C 74 % 1021,6 hPa 0,0 l/m 0 min 0 min 94 W/m 16,1 km/h (3 Bft) 95,74 %
19.02.2020 16:28 7,1 C 6,7 C 6,1 C 74 % 1021,6 hPa 0,0 l/m 2 min 0 min 101 W/m 9,7 km/h (2 Bft) 97,87 %
19.02.2020 16:30 7,1 C 6,7 C 6,1 C 75 % 1021,6 hPa 0,0 l/m 0 min 0 min 89 W/m 12,9 km/h (3 Bft) 97,83 %
19.02.2020 16:32 7,1 C 6,7 C 6,1 C 75 % 1021,6 hPa 0,0 l/m 0 min 0 min 77 W/m 6,4 km/h (2 Bft) 97,87 %
19.02.2020 16:34 7,1 C 6,7 C 6,1 C 75 % 1021,5 hPa 0,0 l/m 0 min 0 min 69 W/m 16,1 km/h (3 Bft) 100,00 %
19.02.2020 16:36 7,1 C 6,7 C 6,1 C 75 % 1021,6 hPa 0,0 l/m 0 min 0 min 60 W/m 6,4 km/h (2 Bft) 100,00 %
19.02.2020 16:38 7,1 C 6,7 C 6,1 C 75 % 1021,6 hPa 0,0 l/m 0 min 0 min 59 W/m 9,7 km/h (2 Bft) 100,00 %
19.02.2020 16:40 7,1 C 6,7 C 6,1 C 75 % 1021,6 hPa 0,0 l/m 0 min 0 min 59 W/m 9,7 km/h (2 Bft) 100,00 %
19.02.2020 16:42 7,0 C 6,7 C 6,1 C 75 % 1021,6 hPa 0,0 l/m 0 min 0 min 53 W/m 9,7 km/h (2 Bft) 97,87 %
19.02.2020 16:44 7,0 C 6,7 C 5,6 C 75 % 1021,5 hPa 0,0 l/m 0 min 0 min 48 W/m 12,9 km/h (3 Bft) 97,87 %
19.02.2020 16:46 7,0 C 6,7 C 6,1 C 75 % 1021,6 hPa 0,0 l/m 0 min 0 min 46 W/m 19,3 km/h (3 Bft) 100,00 %
19.02.2020 16:48 6,9 C 6,1 C 5,6 C 74 % 1021,6 hPa 0,0 l/m 0 min 0 min 45 W/m 12,9 km/h (3 Bft) 100,00 %
19.02.2020 16:50 6,9 C 6,1 C 5,6 C 74 % 1021,6 hPa 0,0 l/m 0 min 0 min 42 W/m 19,3 km/h (3 Bft) 100,00 %
19.02.2020 16:52 6,9 C 6,1 C 5,6 C 74 % 1021,6 hPa 0,0 l/m 0 min 0 min 46 W/m 9,7 km/h (2 Bft) 100,00 %
19.02.2020 16:54 6,9 C 6,1 C 5,6 C 74 % 1021,6 hPa 0,0 l/m 0 min 0 min 49 W/m 9,7 km/h (2 Bft) 97,87 %
19.02.2020 16:56 6,9 C 6,1 C 5,6 C 74 % 1021,6 hPa 0,0 l/m 0 min 0 min 49 W/m 9,7 km/h (2 Bft) 97,83 %
19.02.2020 16:58 6,9 C 6,1 C 5,6 C 74 % 1021,6 hPa 0,0 l/m 0 min 0 min 45 W/m 12,9 km/h (3 Bft) 97,87 %
19.02.2020 17:00 6,9 C 6,1 C 5,6 C 75 % 1021,6 hPa 0,0 l/m 0 min 0 min 45 W/m 12,9 km/h (3 Bft) 95,74 %
19.02.2020 17:02 6,8 C 6,1 C 5,6 C 75 % 1021,5 hPa 0,0 l/m 0 min 0 min 45 W/m 12,9 km/h (3 Bft) 97,87 %
19.02.2020 17:04 6,8 C 6,1 C 5,6 C 75 % 1021,6 hPa 0,0 l/m 0 min 0 min 43 W/m 12,9 km/h (3 Bft) 97,87 %
19.02.2020 17:06 6,8 C 6,1 C 5,6 C 75 % 1021,5 hPa 0,0 l/m 0 min 0 min 42 W/m 12,9 km/h (3 Bft) 97,83 %
19.02.2020 17:08 6,8 C 6,1 C 5,6 C 75 % 1021,5 hPa 0,0 l/m 0 min 0 min 42 W/m 12,9 km/h (3 Bft) 97,87 %
19.02.2020 17:10 6,8 C 6,1 C 5,6 C 75 % 1021,5 hPa 0,0 l/m 0 min 0 min 37 W/m 12,9 km/h (3 Bft) 97,87 %
19.02.2020 17:12 6,8 C 6,1 C 5,6 C 75 % 1021,6 hPa 0,0 l/m 0 min 0 min 29 W/m 12,9 km/h (3 Bft) 97,87 %
19.02.2020 17:14 6,7 C 6,1 C 5,6 C 75 % 1021,6 hPa 0,0 l/m 0 min 0 min 24 W/m 12,9 km/h (3 Bft) 97,87 %
19.02.2020 17:16 6,7 C 6,1 C 5,6 C 75 % 1021,7 hPa 0,0 l/m 0 min 0 min 22 W/m 6,4 km/h (2 Bft) 97,87 %
19.02.2020 17:18 6,7 C 6,1 C 5,6 C 75 % 1021,6 hPa 0,0 l/m 0 min 0 min 24 W/m 16,1 km/h (3 Bft) 97,83 %
19.02.2020 17:20 6,7 C 6,1 C 5,6 C 75 % 1021,7 hPa 0,0 l/m 0 min 0 min 25 W/m 6,4 km/h (2 Bft) 97,87 %
19.02.2020 17:22 6,7 C 6,1 C 5,6 C 75 % 1021,7 hPa 0,0 l/m 0 min 0 min 25 W/m 12,9 km/h (3 Bft) 93,62 %
19.02.2020 17:24 6,7 C 6,1 C 5,6 C 75 % 1021,7 hPa 0,0 l/m 0 min 0 min 25 W/m 12,9 km/h (3 Bft) 97,87 %
19.02.2020 17:26 6,7 C 6,1 C 5,6 C 75 % 1021,8 hPa 0,0 l/m 0 min 0 min 23 W/m 22,5 km/h (4 Bft) 93,62 %
19.02.2020 17:30 6,6 C 6,1 C 5,6 C 75 % 1021,7 hPa 0,0 l/m 0 min 0 min 21 W/m 16,1 km/h (3 Bft) 97,03 %
19.02.2020 17:32 6,6 C 6,1 C 5,6 C 75 % 1021,7 hPa 0,0 l/m 0 min 0 min 18 W/m 19,3 km/h (3 Bft) 100,00 %
19.02.2020 17:36 6,6 C 6,1 C 5,6 C 74 % 1021,8 hPa 0,0 l/m 0 min 0 min 14 W/m 22,5 km/h (4 Bft) 97,12 %
19.02.2020 17:38 6,6 C 6,1 C 5,6 C 74 % 1021,8 hPa 0,0 l/m 0 min 0 min 12 W/m 19,3 km/h (3 Bft) 97,87 %
19.02.2020 17:40 6,6 C 6,1 C 5,6 C 74 % 1021,9 hPa 0,0 l/m 0 min 0 min 12 W/m 6,4 km/h (2 Bft) 100,00 %
19.02.2020 17:42 6,6 C 5,6 C 5,6 C 74 % 1021,9 hPa 0,0 l/m 0 min 0 min 12 W/m 12,9 km/h (3 Bft) 97,87 %
19.02.2020 17:44 6,6 C 5,6 C 5,6 C 74 % 1021,9 hPa 0,0 l/m 0 min 0 min 11 W/m 16,1 km/h (3 Bft) 97,87 %
19.02.2020 17:46 6,6 C 5,6 C 5,6 C 73 % 1022,0 hPa 0,0 l/m 0 min 0 min 9 W/m 19,3 km/h (3 Bft) 97,87 %
19.02.2020 17:48 6,6 C 5,6 C 5,0 C 73 % 1022,0 hPa 0,0 l/m 0 min 0 min 8 W/m 12,9 km/h (3 Bft) 97,83 %
19.02.2020 17:50 6,5 C 5,6 C 5,0 C 73 % 1022,0 hPa 0,0 l/m 0 min 0 min 5 W/m 9,7 km/h (2 Bft) 97,87 %
19.02.2020 17:52 6,5 C 5,6 C 5,0 C 73 % 1022,1 hPa 0,0 l/m 0 min 0 min 5 W/m 12,9 km/h (3 Bft) 97,87 %
19.02.2020 17:54 6,5 C 5,6 C 5,0 C 73 % 1022,1 hPa 0,0 l/m 0 min 0 min 1 W/m 9,7 km/h (2 Bft) 97,87 %
19.02.2020 17:56 6,4 C 5,6 C 5,0 C 73 % 1022,1 hPa 0,0 l/m 0 min 0 min 0 W/m 9,7 km/h (2 Bft) 97,87 %
19.02.2020 17:58 6,4 C 5,0 C 5,0 C 73 % 1022,1 hPa 0,0 l/m 0 min 0 min 0 W/m 12,9 km/h (3 Bft) 95,74 %
19.02.2020 18:00 6,4 C 5,0 C 5,0 C 73 % 1022,1 hPa 0,0 l/m 0 min 0 min 0 W/m 6,4 km/h (2 Bft) 97,83 %
19.02.2020 18:02 6,3 C 5,0 C 4,4 C 73 % 1022,1 hPa 0,0 l/m 0 min 0 min 0 W/m 12,9 km/h (3 Bft) 93,62 %
19.02.2020 18:04 6,3 C 5,0 C 4,4 C 73 % 1022,1 hPa 0,0 l/m 0 min 0 min 0 W/m 16,1 km/h (3 Bft) 97,87 %
19.02.2020 18:08 6,2 C 5,0 C 4,4 C 73 % 1022,1 hPa 0,0 l/m 0 min 0 min 0 W/m 12,9 km/h (3 Bft) 97,87 %
19.02.2020 18:10 6,2 C 5,0 C 4,4 C 73 % 1022,1 hPa 0,0 l/m 0 min 0 min 0 W/m 9,7 km/h (2 Bft) 97,83 %
19.02.2020 18:12 6,1 C 5,0 C 4,4 C 74 % 1022,1 hPa 0,0 l/m 0 min 0 min 0 W/m 12,9 km/h (3 Bft) 93,62 %
19.02.2020 18:14 6,1 C 5,0 C 4,4 C 74 % 1022,1 hPa 0,0 l/m 0 min 0 min 0 W/m 6,4 km/h (2 Bft) 95,74 %
19.02.2020 18:16 6,1 C 4,4 C 4,4 C 74 % 1022,1 hPa 0,0 l/m 0 min 0 min 0 W/m 6,4 km/h (2 Bft) 93,62 %
19.02.2020 18:18 6,0 C 4,4 C 4,4 C 74 % 1022,1 hPa 0,0 l/m 0 min 0 min 0 W/m 6,4 km/h (2 Bft) 95,74 %
19.02.2020 18:20 5,9 C 4,4 C 4,4 C 74 % 1022,1 hPa 0,0 l/m 0 min 0 min 0 W/m 6,4 km/h (2 Bft) 93,62 %
19.02.2020 18:22 5,9 C 4,4 C 4,4 C 74 % 1022,1 hPa 0,0 l/m 0 min 0 min 0 W/m 12,9 km/h (3 Bft) 95,65 %
19.02.2020 18:24 5,9 C 4,4 C 4,4 C 74 % 1022,1 hPa 0,0 l/m 0 min 0 min 0 W/m 6,4 km/h (2 Bft) 95,74 %
19.02.2020 18:26 5,8 C 4,4 C 3,9 C 74 % 1022,1 hPa 0,0 l/m 0 min 0 min 0 W/m 6,4 km/h (2 Bft) 95,74 %
19.02.2020 18:28 5,8 C 4,4 C 3,9 C 74 % 1022,2 hPa 0,0 l/m 0 min 0 min 0 W/m 6,4 km/h (2 Bft) 95,74 %
19.02.2020 18:30 5,8 C 4,4 C 3,9 C 74 % 1022,1 hPa 0,0 l/m 0 min 0 min 0 W/m 12,9 km/h (3 Bft) 93,62 %
19.02.2020 18:32 5,7 C 4,4 C 3,9 C 74 % 1022,1 hPa 0,0 l/m 0 min 0 min 0 W/m 6,4 km/h (2 Bft) 97,22 %
19.02.2020 18:34 5,7 C 4,4 C 3,9 C 74 % 1022,1 hPa 0,0 l/m 0 min 0 min 0 W/m 6,4 km/h (2 Bft) 95,74 %
19.02.2020 18:36 5,7 C 4,4 C 3,9 C 74 % 1022,2 hPa 0,0 l/m 0 min 0 min 0 W/m 6,4 km/h (2 Bft) 95,65 %
19.02.2020 18:38 5,6 C 4,4 C 3,9 C 74 % 1022,2 hPa 0,0 l/m 0 min 0 min 0 W/m 6,4 km/h (2 Bft) 91,49 %
19.02.2020 18:40 5,6 C 4,4 C 3,9 C 74 % 1022,1 hPa 0,0 l/m 0 min 0 min 0 W/m 6,4 km/h (2 Bft) 95,74 %
19.02.2020 18:42 5,6 C 4,4 C 3,9 C 74 % 1022,1 hPa 0,0 l/m 0 min 0 min 0 W/m 6,4 km/h (2 Bft) 95,74 %
19.02.2020 18:44 5,6 C 4,4 C 3,9 C 74 % 1022,1 hPa 0,0 l/m 0 min 0 min 0 W/m 12,9 km/h (3 Bft) 57,45 %
19.02.2020 18:46 5,5 C 4,4 C 3,9 C 74 % 1022,0 hPa 0,0 l/m 0 min 0 min 0 W/m 12,9 km/h (3 Bft) 97,96 %
19.02.2020 18:48 5,5 C 4,4 C 3,9 C 74 % 1022,1 hPa 0,0 l/m 0 min 0 min 0 W/m 12,9 km/h (3 Bft) 95,65 %
19.02.2020 18:50 5,4 C 4,4 C 3,9 C 74 % 1022,1 hPa 0,0 l/m 0 min 0 min 0 W/m 6,4 km/h (2 Bft) 100,00 %
19.02.2020 18:52 5,4 C 4,4 C 3,9 C 75 % 1022,1 hPa 0,0 l/m 0 min 0 min 0 W/m 12,9 km/h (3 Bft) 100,00 %
19.02.2020 18:54 5,4 C 4,4 C 3,9 C 75 % 1022,1 hPa 0,0 l/m 0 min 0 min 0 W/m 6,4 km/h (2 Bft) 100,00 %
19.02.2020 18:56 5,4 C 4,4 C 3,3 C 75 % 1022,0 hPa 0,0 l/m 0 min 0 min 0 W/m 6,4 km/h (2 Bft) 97,87 %
19.02.2020 18:58 5,3 C 4,4 C 3,3 C 75 % 1022,0 hPa 0,0 l/m 0 min 0 min 0 W/m 6,4 km/h (2 Bft) 100,00 %
19.02.2020 19:00 5,3 C 4,4 C 3,9 C 75 % 1022,0 hPa 0,0 l/m 0 min 0 min 0 W/m 6,4 km/h (2 Bft) 100,00 %
19.02.2020 19:02 5,3 C 4,4 C 3,3 C 75 % 1022,0 hPa 0,0 l/m 0 min 0 min 0 W/m 6,4 km/h (2 Bft) 100,00 %
19.02.2020 19:04 5,3 C 4,4 C 3,3 C 75 % 1022,0 hPa 0,0 l/m 0 min 0 min 0 W/m 12,9 km/h (3 Bft) 100,00 %
19.02.2020 19:06 5,2 C 3,9 C 3,3 C 75 % 1022,0 hPa 0,0 l/m 0 min 0 min 0 W/m 12,9 km/h (3 Bft) 95,74 %
19.02.2020 19:08 5,2 C 4,4 C 3,9 C 75 % 1022,0 hPa 0,0 l/m 0 min 0 min 0 W/m 16,1 km/h (3 Bft) 100,00 %
19.02.2020 19:10 5,2 C 4,4 C 3,9 C 75 % 1022,0 hPa 0,0 l/m 0 min 0 min 0 W/m 6,4 km/h (2 Bft) 100,00 %
19.02.2020 19:12 5,2 C 4,4 C 3,9 C 75 % 1022,0 hPa 0,0 l/m 0 min 0 min 0 W/m 6,4 km/h (2 Bft) 100,00 %
19.02.2020 19:14 5,2 C 4,4 C 3,9 C 76 % 1022,0 hPa 0,0 l/m 0 min 0 min 0 W/m 3,2 km/h (1 Bft) 100,00 %
19.02.2020 19:16 5,2 C 3,9 C 3,3 C 76 % 1021,9 hPa 0,0 l/m 0 min 0 min 0 W/m 6,4 km/h (2 Bft) 100,00 %
19.02.2020 19:18 5,1 C 3,9 C 3,3 C 76 % 1022,0 hPa 0,0 l/m 0 min 0 min 0 W/m 12,9 km/h (3 Bft) 100,00 %
19.02.2020 19:20 5,1 C 3,9 C 3,3 C 76 % 1022,0 hPa 0,0 l/m 0 min 0 min 0 W/m 16,1 km/h (3 Bft) 97,87 %
19.02.2020 19:22 5,1 C 3,9 C 3,3 C 76 % 1022,0 hPa 0,0 l/m 0 min 0 min 0 W/m 6,4 km/h (2 Bft) 97,83 %
19.02.2020 19:24 5,1 C 3,9 C 3,3 C 76 % 1022,0 hPa 0,0 l/m 0 min 0 min 0 W/m 12,9 km/h (3 Bft) 100,00 %
19.02.2020 19:26 5,1 C 3,9 C 3,3 C 76 % 1022,1 hPa 0,0 l/m 0 min 0 min 0 W/m 12,9 km/h (3 Bft) 100,00 %
19.02.2020 19:28 5,0 C 3,9 C 3,3 C 77 % 1022,0 hPa 0,0 l/m 0 min 0 min 0 W/m 16,1 km/h (3 Bft) 100,00 %
19.02.2020 19:30 5,0 C 3,9 C 3,3 C 77 % 1022,0 hPa 0,0 l/m 0 min 0 min 0 W/m 12,9 km/h (3 Bft) 100,00 %
19.02.2020 19:32 5,0 C 3,9 C 3,3 C 77 % 1022,0 hPa 0,0 l/m 0 min 0 min 0 W/m 6,4 km/h (2 Bft) 100,00 %
19.02.2020 19:34 4,9 C 3,9 C 3,3 C 77 % 1022,0 hPa 0,0 l/m 0 min 0 min 0 W/m 16,1 km/h (3 Bft) 100,00 %
19.02.2020 19:36 4,9 C 3,9 C 3,3 C 77 % 1022,0 hPa 0,0 l/m 0 min 0 min 0 W/m 6,4 km/h (2 Bft) 100,00 %
19.02.2020 19:38 4,9 C 3,9 C 3,3 C 77 % 1022,0 hPa 0,0 l/m 0 min 0 min 0 W/m 12,9 km/h (3 Bft) 100,00 %
19.02.2020 19:40 4,9 C 3,9 C 3,3 C 77 % 1021,9 hPa 0,0 l/m 0 min 0 min 0 W/m 12,9 km/h (3 Bft) 100,00 %
19.02.2020 19:42 4,9 C 3,9 C 3,3 C 77 % 1021,9 hPa 0,0 l/m 0 min 0 min 0 W/m 12,9 km/h (3 Bft) 100,00 %
19.02.2020 19:44 4,8 C 3,9 C 3,3 C 77 % 1022,0 hPa 0,0 l/m 0 min 0 min 0 W/m 12,9 km/h (3 Bft) 100,00 %
19.02.2020 19:46 4,8 C 3,9 C 3,3 C 78 % 1021,9 hPa 0,0 l/m 0 min 0 min 0 W/m 6,4 km/h (2 Bft) 100,00 %
19.02.2020 19:48 4,8 C 3,9 C 3,3 C 78 % 1021,9 hPa 0,0 l/m 0 min 0 min 0 W/m 12,9 km/h (3 Bft) 100,00 %
19.02.2020 19:50 4,8 C 3,9 C 3,3 C 78 % 1021,9 hPa 0,0 l/m 0 min 0 min 0 W/m 12,9 km/h (3 Bft) 100,00 %
19.02.2020 19:52 4,7 C 3,9 C 3,3 C 78 % 1021,9 hPa 0,0 l/m 0 min 0 min 0 W/m 19,3 km/h (3 Bft) 100,00 %
19.02.2020 19:54 4,7 C 3,9 C 3,3 C 78 % 1022,0 hPa 0,0 l/m 0 min 0 min 0 W/m 9,7 km/h (2 Bft) 100,00 %
19.02.2020 19:56 4,7 C 3,9 C 3,3 C 78 % 1022,0 hPa 0,0 l/m 0 min 0 min 0 W/m 6,4 km/h (2 Bft) 100,00 %
19.02.2020 19:58 4,7 C 3,3 C 2,8 C 78 % 1021,9 hPa 0,0 l/m 0 min 0 min 0 W/m 6,4 km/h (2 Bft) 100,00 %
19.02.2020 20:00 4,7 C 3,3 C 2,8 C 78 % 1021,9 hPa 0,0 l/m 0 min 0 min 0 W/m 9,7 km/h (2 Bft) 100,00 %
19.02.2020 20:02 4,7 C 3,3 C 2,8 C 79 % 1022,0 hPa 0,0 l/m 0 min 0 min 0 W/m 6,4 km/h (2 Bft) 97,87 %
19.02.2020 20:04 4,6 C 3,3 C 2,8 C 79 % 1021,9 hPa 0,0 l/m 0 min 0 min 0 W/m 3,2 km/h (1 Bft) 100,00 %
19.02.2020 20:06 4,6 C 3,3 C 2,8 C 79 % 1022,0 hPa 0,0 l/m 0 min 0 min 0 W/m 6,4 km/h (2 Bft) 97,87 %
19.02.2020 20:08 4,6 C 3,3 C 2,8 C 79 % 1021,9 hPa 0,0 l/m 0 min 0 min 0 W/m 6,4 km/h (2 Bft) 100,00 %
19.02.2020 20:10 4,6 C 3,3 C 2,8 C 79 % 1021,9 hPa 0,0 l/m 0 min 0 min 0 W/m 3,2 km/h (1 Bft) 100,00 %
19.02.2020 20:12 4,5 C 3,3 C 2,8 C 79 % 1021,8 hPa 0,0 l/m 0 min 0 min 0 W/m 9,7 km/h (2 Bft) 97,87 %
19.02.2020 20:14 4,5 C 3,3 C 2,8 C 80 % 1021,8 hPa 0,0 l/m 0 min 0 min 0 W/m 6,4 km/h (2 Bft) 100,00 %
19.02.2020 20:16 4,5 C 3,3 C 2,8 C 80 % 1021,8 hPa 0,0 l/m 0 min 0 min 0 W/m 9,7 km/h (2 Bft) 100,00 %
19.02.2020 20:18 4,4 C 3,3 C 2,8 C 80 % 1021,9 hPa 0,0 l/m 0 min 0 min 0 W/m 6,4 km/h (2 Bft) 100,00 %
19.02.2020 20:20 4,4 C 3,3 C 2,8 C 80 % 1021,8 hPa 0,0 l/m 0 min 0 min 0 W/m 6,4 km/h (2 Bft) 97,83 %
19.02.2020 20:22 4,4 C 3,3 C 2,8 C 80 % 1021,8 hPa 0,0 l/m 0 min 0 min 0 W/m 6,4 km/h (2 Bft) 97,87 %
19.02.2020 20:24 4,4 C 3,3 C 2,8 C 80 % 1021,8 hPa 0,0 l/m 0 min 0 min 0 W/m 6,4 km/h (2 Bft) 97,87 %
19.02.2020 20:26 4,4 C 3,9 C 2,8 C 80 % 1021,8 hPa 0,0 l/m 0 min 0 min 0 W/m 9,7 km/h (2 Bft) 97,87 %
19.02.2020 20:28 4,4 C 3,9 C 3,3 C 80 % 1021,8 hPa 0,0 l/m 0 min 0 min 0 W/m 12,9 km/h (3 Bft) 97,87 %
19.02.2020 20:30 4,4 C 3,9 C 3,3 C 81 % 1021,7 hPa 0,0 l/m 0 min 0 min 0 W/m 12,9 km/h (3 Bft) 97,87 %
19.02.2020 20:32 4,4 C 3,9 C 3,3 C 81 % 1021,7 hPa 0,0 l/m 0 min 0 min 0 W/m 6,4 km/h (2 Bft) 97,83 %
19.02.2020 20:34 4,4 C 3,9 C 3,3 C 81 % 1021,8 hPa 0,0 l/m 0 min 0 min 0 W/m 6,4 km/h (2 Bft) 100,00 %
19.02.2020 20:36 4,4 C 3,9 C 3,3 C 81 % 1021,7 hPa 0,0 l/m 0 min 0 min 0 W/m 3,2 km/h (1 Bft) 97,87 %
19.02.2020 20:38 4,4 C 3,9 C 3,3 C 81 % 1021,7 hPa 0,0 l/m 0 min 0 min 0 W/m 6,4 km/h (2 Bft) 97,87 %
19.02.2020 20:40 4,4 C 3,9 C 3,3 C 81 % 1021,7 hPa 0,0 l/m 0 min 0 min 0 W/m 6,4 km/h (2 Bft) 97,87 %
19.02.2020 20:42 4,3 C 3,9 C 3,3 C 81 % 1021,7 hPa 0,0 l/m 0 min 0 min 0 W/m 6,4 km/h (2 Bft) 95,74 %
19.02.2020 20:44 4,4 C 3,9 C 3,3 C 81 % 1021,7 hPa 0,0 l/m 0 min 0 min 0 W/m 6,4 km/h (2 Bft) 76,09 %
19.02.2020 20:46 4,4 C 3,9 C 3,3 C 81 % 1021,6 hPa 0,0 l/m 0 min 0 min 0 W/m 6,4 km/h (2 Bft) 74,36 %
19.02.2020 20:48 4,4 C 3,9 C 3,3 C 81 % 1021,6 hPa 0,0 l/m 0 min 0 min 0 W/m 12,9 km/h (3 Bft) 97,87 %
19.02.2020 20:50 4,4 C 3,9 C 3,3 C 82 % 1021,6 hPa 0,0 l/m 0 min 0 min 0 W/m 12,9 km/h (3 Bft) 95,74 %
19.02.2020 20:52 4,4 C 3,9 C 3,3 C 82 % 1021,6 hPa 0,0 l/m 0 min 0 min 0 W/m 16,1 km/h (3 Bft) 97,87 %
19.02.2020 20:54 4,4 C 3,9 C 3,3 C 82 % 1021,6 hPa 0,0 l/m 0 min 0 min 0 W/m 6,4 km/h (2 Bft) 97,87 %
19.02.2020 20:56 4,4 C 3,9 C 3,3 C 82 % 1021,6 hPa 0,0 l/m 0 min 0 min 0 W/m 16,1 km/h (3 Bft) 97,83 %
19.02.2020 20:58 4,4 C 4,4 C 3,3 C 82 % 1021,6 hPa 0,0 l/m 0 min 0 min 0 W/m 12,9 km/h (3 Bft) 97,87 %
19.02.2020 21:00 4,5 C 4,4 C 3,3 C 82 % 1021,6 hPa 0,0 l/m 0 min 0 min 0 W/m 12,9 km/h (3 Bft) 95,74 %
19.02.2020 21:02 4,5 C 4,4 C 3,9 C 82 % 1021,6 hPa 0,0 l/m 0 min 0 min 0 W/m 16,1 km/h (3 Bft) 95,74 %
19.02.2020 21:04 4,6 C 4,4 C 3,9 C 82 % 1021,6 hPa 0,0 l/m 0 min 0 min 0 W/m 16,1 km/h (3 Bft) 95,74 %
19.02.2020 21:06 4,6 C 4,4 C 3,9 C 82 % 1021,6 hPa 0,0 l/m 0 min 0 min 0 W/m 16,1 km/h (3 Bft) 95,74 %
19.02.2020 21:08 4,6 C 4,4 C 3,9 C 82 % 1021,6 hPa 0,0 l/m 0 min 0 min 0 W/m 25,7 km/h (4 Bft) 93,48 %
19.02.2020 21:10 4,7 C 4,4 C 3,9 C 82 % 1021,6 hPa 0,0 l/m 0 min 0 min 0 W/m 16,1 km/h (3 Bft) 95,74 %
19.02.2020 21:12 4,7 C 5,0 C 3,9 C 83 % 1021,5 hPa 0,0 l/m 0 min 0 min 0 W/m 19,3 km/h (3 Bft) 93,62 %
19.02.2020 21:14 4,8 C 5,0 C 4,4 C 83 % 1021,5 hPa 0,0 l/m 0 min 0 min 0 W/m 25,7 km/h (4 Bft) 95,74 %
19.02.2020 21:16 4,9 C 5,0 C 4,4 C 82 % 1021,6 hPa 0,0 l/m 0 min 0 min 0 W/m 29,0 km/h (5 Bft) 95,74 %
19.02.2020 21:18 5,0 C 5,0 C 4,4 C 82 % 1021,5 hPa 0,0 l/m 0 min 0 min 0 W/m 22,5 km/h (4 Bft) 95,65 %
19.02.2020 21:20 5,1 C 5,0 C 4,4 C 82 % 1021,6 hPa 0,0 l/m 0 min 0 min 0 W/m 16,1 km/h (3 Bft) 95,74 %
19.02.2020 21:22 5,1 C 5,0 C 4,4 C 82 % 1021,5 hPa 0,0 l/m 0 min 0 min 0 W/m 19,3 km/h (3 Bft) 95,83 %
19.02.2020 21:24 5,2 C 5,0 C 4,4 C 82 % 1021,6 hPa 0,0 l/m 0 min 0 min 0 W/m 22,5 km/h (4 Bft) 95,74 %
19.02.2020 21:26 5,3 C 5,0 C 4,4 C 82 % 1021,6 hPa 0,0 l/m 0 min 0 min 0 W/m 19,3 km/h (3 Bft) 93,62 %
19.02.2020 21:28 5,3 C 5,0 C 4,4 C 82 % 1021,6 hPa 0,0 l/m 0 min 0 min 0 W/m 16,1 km/h (3 Bft) 95,74 %
19.02.2020 21:30 5,4 C 5,0 C 4,4 C 82 % 1021,5 hPa 0,0 l/m 0 min 0 min 0 W/m 22,5 km/h (4 Bft) 91,30 %
19.02.2020 21:32 5,4 C 5,0 C 4,4 C 82 % 1021,6 hPa 0,0 l/m 0 min 0 min 0 W/m 19,3 km/h (3 Bft) 95,74 %
19.02.2020 21:34 5,4 C 5,0 C 4,4 C 82 % 1021,6 hPa 0,0 l/m 0 min 0 min 0 W/m 19,3 km/h (3 Bft) 95,74 %
19.02.2020 21:36 5,5 C 5,0 C 4,4 C 82 % 1021,6 hPa 0,0 l/m 0 min 0 min 0 W/m 22,5 km/h (4 Bft) 93,62 %
19.02.2020 21:38 5,6 C 5,0 C 4,4 C 82 % 1021,6 hPa 0,0 l/m 0 min 0 min 0 W/m 12,9 km/h (3 Bft) 95,74 %
19.02.2020 21:40 5,6 C 5,0 C 4,4 C 82 % 1021,5 hPa 0,0 l/m 0 min 0 min 0 W/m 16,1 km/h (3 Bft) 95,74 %
19.02.2020 21:42 5,6 C 5,0 C 4,4 C 81 % 1021,5 hPa 0,0 l/m 0 min 0 min 0 W/m 16,1 km/h (3 Bft) 95,74 %
19.02.2020 21:44 5,6 C 5,0 C 4,4 C 81 % 1021,6 hPa 0,0 l/m 0 min 0 min 0 W/m 29,0 km/h (5 Bft) 93,48 %
19.02.2020 21:46 5,7 C 5,0 C 4,4 C 82 % 1021,5 hPa 0,0 l/m 0 min 0 min 0 W/m 25,7 km/h (4 Bft) 93,62 %
19.02.2020 21:48 5,7 C 5,0 C 4,4 C 82 % 1021,5 hPa 0,0 l/m 0 min 0 min 0 W/m 22,5 km/h (4 Bft) 95,74 %
19.02.2020 21:50 5,7 C 5,0 C 4,4 C 83 % 1021,5 hPa 0,0 l/m 0 min 2 min 0 W/m 22,5 km/h (4 Bft) 97,87 %
19.02.2020 21:52 5,7 C 4,4 C 4,4 C 83 % 1021,5 hPa 0,0 l/m 0 min 2 min 0 W/m 22,5 km/h (4 Bft) 97,87 %
19.02.2020 21:54 5,7 C 4,4 C 3,9 C 84 % 1021,4 hPa 0,0 l/m 0 min 2 min 0 W/m 22,5 km/h (4 Bft) 93,62 %
19.02.2020 21:56 5,8 C 4,4 C 3,9 C 84 % 1021,5 hPa 0,0 l/m 0 min 2 min 0 W/m 19,3 km/h (3 Bft) 95,65 %
19.02.2020 21:58 5,8 C 3,9 C 3,9 C 85 % 1021,4 hPa 0,0 l/m 0 min 2 min 0 W/m 16,1 km/h (3 Bft) 97,87 %
19.02.2020 22:00 5,8 C 3,9 C 3,9 C 85 % 1021,4 hPa 0,0 l/m 0 min 2 min 0 W/m 22,5 km/h (4 Bft) 97,87 %
19.02.2020 22:02 5,8 C 4,4 C 3,9 C 85 % 1021,3 hPa 0,0 l/m 0 min 2 min 0 W/m 29,0 km/h (5 Bft) 97,87 %
19.02.2020 22:04 5,8 C 3,9 C 3,9 C 86 % 1021,3 hPa 0,0 l/m 0 min 2 min 0 W/m 32,2 km/h (5 Bft) 97,87 %
19.02.2020 22:06 5,8 C 3,9 C 3,9 C 87 % 1021,3 hPa 0,0 l/m 0 min 2 min 0 W/m 19,3 km/h (3 Bft) 100,00 %
19.02.2020 22:08 5,8 C 4,4 C 3,9 C 87 % 1021,3 hPa 0,0 l/m 0 min 2 min 0 W/m 25,7 km/h (4 Bft) 100,00 %
19.02.2020 22:10 5,8 C 4,4 C 3,9 C 87 % 1021,2 hPa 0,0 l/m 0 min 2 min 0 W/m 25,7 km/h (4 Bft) 100,00 %
19.02.2020 22:12 5,7 C 4,4 C 3,9 C 88 % 1021,3 hPa 0,0 l/m 0 min 2 min 0 W/m 35,4 km/h (5 Bft) 100,00 %
19.02.2020 22:14 5,7 C 4,4 C 3,9 C 88 % 1021,2 hPa 0,0 l/m 0 min 2 min 0 W/m 19,3 km/h (3 Bft) 97,87 %
19.02.2020 22:16 5,7 C 4,4 C 3,9 C 88 % 1021,2 hPa 0,0 l/m 0 min 2 min 0 W/m 25,7 km/h (4 Bft) 100,00 %
19.02.2020 22:18 5,7 C 4,4 C 3,9 C 89 % 1021,2 hPa 0,0 l/m 0 min 2 min 0 W/m 29,0 km/h (5 Bft) 100,00 %
19.02.2020 22:20 5,7 C 4,4 C 3,9 C 89 % 1021,2 hPa 0,0 l/m 0 min 2 min 0 W/m 22,5 km/h (4 Bft) 100,00 %
19.02.2020 22:22 5,7 C 4,4 C 3,9 C 89 % 1021,2 hPa 0,0 l/m 0 min 2 min 0 W/m 19,3 km/h (3 Bft) 100,00 %
19.02.2020 22:24 5,7 C 4,4 C 3,9 C 89 % 1021,3 hPa 0,0 l/m 0 min 2 min 0 W/m 16,1 km/h (3 Bft) 97,87 %
19.02.2020 22:26 5,7 C 4,4 C 3,9 C 90 % 1021,2 hPa 0,0 l/m 0 min 2 min 0 W/m 25,7 km/h (4 Bft) 100,00 %
19.02.2020 22:28 5,6 C 4,4 C 3,9 C 90 % 1021,1 hPa 0,0 l/m 0 min 2 min 0 W/m 19,3 km/h (3 Bft) 100,00 %
19.02.2020 22:30 5,6 C 4,4 C 3,9 C 90 % 1021,1 hPa 0,0 l/m 0 min 2 min 0 W/m 22,5 km/h (4 Bft) 95,65 %
19.02.2020 22:32 5,6 C 4,4 C 3,9 C 90 % 1021,2 hPa 0,0 l/m 0 min 2 min 0 W/m 22,5 km/h (4 Bft) 100,00 %
19.02.2020 22:34 5,6 C 4,4 C 3,9 C 91 % 1021,1 hPa 0,0 l/m 0 min 2 min 0 W/m 16,1 km/h (3 Bft) 100,00 %
19.02.2020 22:36 5,6 C 4,4 C 3,9 C 91 % 1021,1 hPa 0,0 l/m 0 min 2 min 0 W/m 25,7 km/h (4 Bft) 100,00 %
19.02.2020 22:38 5,6 C 4,4 C 3,9 C 91 % 1021,1 hPa 0,0 l/m 0 min 2 min 0 W/m 16,1 km/h (3 Bft) 97,87 %
19.02.2020 22:40 5,6 C 4,4 C 3,9 C 91 % 1021,1 hPa 0,0 l/m 0 min 2 min 0 W/m 22,5 km/h (4 Bft) 100,00 %
19.02.2020 22:42 5,6 C 4,4 C 3,9 C 91 % 1021,1 hPa 0,0 l/m 0 min 2 min 0 W/m 22,5 km/h (4 Bft) 97,83 %
19.02.2020 22:44 5,6 C 4,4 C 3,9 C 91 % 1021,1 hPa 0,0 l/m 0 min 2 min 0 W/m 19,3 km/h (3 Bft) 97,87 %
19.02.2020 22:46 5,6 C 4,4 C 3,9 C 91 % 1021,1 hPa 0,0 l/m 0 min 2 min 0 W/m 22,5 km/h (4 Bft) 97,87 %
19.02.2020 22:48 5,6 C 4,4 C 3,9 C 91 % 1021,1 hPa 0,0 l/m 0 min 2 min 0 W/m 22,5 km/h (4 Bft) 97,87 %
19.02.2020 22:50 5,6 C 4,4 C 3,9 C 92 % 1021,0 hPa 0,0 l/m 0 min 2 min 0 W/m 16,1 km/h (3 Bft) 97,87 %
19.02.2020 22:52 5,6 C 4,4 C 3,9 C 92 % 1021,1 hPa 0,0 l/m 0 min 2 min 0 W/m 22,5 km/h (4 Bft) 97,87 %
19.02.2020 22:54 5,6 C 4,4 C 3,9 C 92 % 1021,1 hPa 0,0 l/m 0 min 2 min 0 W/m 25,7 km/h (4 Bft) 97,83 %
19.02.2020 22:56 5,6 C 4,4 C 3,9 C 92 % 1021,1 hPa 0,0 l/m 0 min 2 min 0 W/m 16,1 km/h (3 Bft) 97,87 %
19.02.2020 22:58 5,6 C 4,4 C 3,9 C 92 % 1021,0 hPa 0,0 l/m 0 min 2 min 0 W/m 25,7 km/h (4 Bft) 95,74 %
19.02.2020 23:00 5,6 C 4,4 C 3,9 C 92 % 1021,0 hPa 0,0 l/m 0 min 2 min 0 W/m 16,1 km/h (3 Bft) 95,74 %
19.02.2020 23:02 5,6 C 4,4 C 3,9 C 92 % 1021,0 hPa 0,0 l/m 0 min 2 min 0 W/m 16,1 km/h (3 Bft) 52,27 %
19.02.2020 23:04 5,5 C 4,4 C 3,9 C 92 % 1021,0 hPa 0,0 l/m 0 min 2 min 0 W/m 12,9 km/h (3 Bft) 95,74 %
19.02.2020 23:06 5,5 C 4,4 C 3,9 C 92 % 1021,0 hPa 0,0 l/m 0 min 2 min 0 W/m 12,9 km/h (3 Bft) 97,83 %
19.02.2020 23:08 5,5 C 4,4 C 3,9 C 92 % 1021,0 hPa 0,0 l/m 0 min 2 min 0 W/m 19,3 km/h (3 Bft) 97,87 %
19.02.2020 23:10 5,5 C 4,4 C 3,9 C 92 % 1021,0 hPa 0,0 l/m 0 min 2 min 0 W/m 19,3 km/h (3 Bft) 97,87 %
19.02.2020 23:12 5,5 C 4,4 C 3,9 C 92 % 1021,0 hPa 0,0 l/m 0 min 2 min 0 W/m 12,9 km/h (3 Bft) 97,87 %
19.02.2020 23:14 5,5 C 4,4 C 3,9 C 92 % 1021,0 hPa 0,0 l/m 0 min 2 min 0 W/m 12,9 km/h (3 Bft) 95,74 %
19.02.2020 23:16 5,5 C 4,4 C 3,9 C 92 % 1020,9 hPa 0,0 l/m 0 min 2 min 0 W/m 3,2 km/h (1 Bft) 93,62 %
19.02.2020 23:18 5,5 C 4,4 C 3,9 C 93 % 1020,9 hPa 0,0 l/m 0 min 2 min 0 W/m 16,1 km/h (3 Bft) 97,83 %
19.02.2020 23:20 5,4 C 4,4 C 3,9 C 93 % 1020,9 hPa 0,0 l/m 0 min 2 min 0 W/m 16,1 km/h (3 Bft) 95,74 %
19.02.2020 23:22 5,5 C 4,4 C 3,9 C 93 % 1020,9 hPa 0,0 l/m 0 min 2 min 0 W/m 12,9 km/h (3 Bft) 97,87 %
19.02.2020 23:24 5,4 C 4,4 C 3,9 C 93 % 1020,9 hPa 0,0 l/m 0 min 2 min 0 W/m 6,4 km/h (2 Bft) 97,87 %
19.02.2020 23:26 5,4 C 4,4 C 3,9 C 93 % 1020,9 hPa 0,0 l/m 0 min 2 min 0 W/m 19,3 km/h (3 Bft) 100,00 %
19.02.2020 23:28 5,4 C 4,4 C 3,9 C 93 % 1020,9 hPa 0,0 l/m 0 min 2 min 0 W/m 19,3 km/h (3 Bft) 100,00 %
19.02.2020 23:30 5,4 C 4,4 C 3,9 C 93 % 1020,8 hPa 0,0 l/m 0 min 2 min 0 W/m 19,3 km/h (3 Bft) 100,00 %
19.02.2020 23:32 5,4 C 4,4 C 3,9 C 93 % 1020,8 hPa 0,0 l/m 0 min 2 min 0 W/m 12,9 km/h (3 Bft) 97,87 %
19.02.2020 23:34 5,4 C 4,4 C 3,9 C 93 % 1020,8 hPa 0,0 l/m 0 min 2 min 0 W/m 22,5 km/h (4 Bft) 100,00 %
19.02.2020 23:36 5,4 C 4,4 C 3,9 C 93 % 1020,7 hPa 0,0 l/m 0 min 2 min 0 W/m 12,9 km/h (3 Bft) 100,00 %
19.02.2020 23:38 5,4 C 4,4 C 3,9 C 93 % 1020,7 hPa 0,0 l/m 0 min 0 min 0 W/m 16,1 km/h (3 Bft) 100,00 %
19.02.2020 23:40 5,4 C 4,4 C 3,9 C 93 % 1020,7 hPa 0,0 l/m 0 min 2 min 0 W/m 16,1 km/h (3 Bft) 100,00 %
19.02.2020 23:42 5,4 C 4,4 C 3,9 C 93 % 1020,6 hPa 0,0 l/m 0 min 0 min 0 W/m 16,1 km/h (3 Bft) 100,00 %
19.02.2020 23:44 5,4 C 4,4 C 3,9 C 93 % 1020,6 hPa 0,0 l/m 0 min 2 min 0 W/m 16,1 km/h (3 Bft) 100,00 %
19.02.2020 23:46 5,4 C 4,4 C 3,9 C 93 % 1020,6 hPa 0,0 l/m 0 min 0 min 0 W/m 6,4 km/h (2 Bft) 100,00 %
19.02.2020 23:48 5,4 C 4,4 C 3,9 C 93 % 1020,6 hPa 0,0 l/m 0 min 0 min 0 W/m 16,1 km/h (3 Bft) 95,74 %
19.02.2020 23:50 5,4 C 4,4 C 3,9 C 93 % 1020,6 hPa 0,0 l/m 0 min 0 min 0 W/m 12,9 km/h (3 Bft) 97,87 %
19.02.2020 23:52 5,4 C 4,4 C 3,9 C 93 % 1020,6 hPa 0,0 l/m 0 min 0 min 0 W/m 16,1 km/h (3 Bft) 95,65 %
19.02.2020 23:54 5,4 C 4,4 C 3,9 C 93 % 1020,6 hPa 0,0 l/m 0 min 0 min 0 W/m 25,7 km/h (4 Bft) 97,87 %
19.02.2020 23:56 5,4 C 4,4 C 3,9 C 93 % 1020,6 hPa 0,0 l/m 0 min 0 min 0 W/m 16,1 km/h (3 Bft) 97,87 %
19.02.2020 23:58 5,4 C 4,4 C 3,9 C 93 % 1020,5 hPa 0,0 l/m 0 min 0 min 0 W/m 12,9 km/h (3 Bft) 97,87 %
_ Min-Zeit 06:30 05:18 05:18 13:50 03:18 - - - - 02:58 08:16
Minimum _ 3,3 C 2,2 C 1,7 C 69 % 1013,0 hPa - - - - 0,0 km/h (0 Bft) 42,86 %
_ Max-Zeit 13:44 13:42 13:14 07:00 18:28 05:22 09:24 00:34 12:56 02:12 00:04
Maximum _ 8,9 C 13,3 C 11,7 C 97 % 1022,2 hPa 0,6 l/m 2 min 2 min 628 W/m 61,2 km/h
SO (7 Bft)
100,00 %
Durchschnitt _ 5,9 C 5,5 C 4,6 C 85 % 1018,6 hPa #3,8 l/m #3:40 h #6:06 h 174 W/m 17,2 km/h (3 Bft) 97,11 %
© 2020 W. Hausmann